KC5DAQ-28 Weather Reports


Display with metric or nautical units.
time (UTC)temp
F
wind
direction
speed
MPH
gust
MPH
rain 1hr
in
rain 24hr
in
rain mn
in
humidity
%
barometer
mb
20260505193203 82 197 4.0 10.0 0.00 0.00 0.00 77 1002.6
20260505193103 82 212 4.0 10.0 0.00 0.00 0.00 77 1002.6
20260505193002 82 251 4.0 10.0 0.00 0.00 0.00 77 1002.7
20260505192902 82 157 4.0 10.0 0.00 0.00 0.00 77 1002.6
20260505192804 82 155 4.0 10.0 0.00 0.00 0.00 77 1002.6
20260505192703 82 186 4.0 10.0 0.00 0.00 0.00 77 1002.7
20260505192603 82 144 4.0 10.0 0.00 0.00 0.00 77 1002.7
20260505192502 82 173 4.0 10.0 0.00 0.00 0.00 77 1002.7
20260505192403 82 158 5.0 10.0 0.00 0.00 0.00 76 1002.7
20260505192305 82 178 6.0 10.0 0.00 0.00 0.00 76 1002.7
20260505192203 82 206 6.0 9.0 0.00 0.00 0.00 76 1002.8
20260505192102 82 166 5.0 9.0 0.00 0.00 0.00 77 1002.7
20260505192005 82 185 4.0 9.0 0.00 0.00 0.00 77 1002.7
20260505191903 83 147 4.0 7.0 0.00 0.00 0.00 76 1002.7
20260505191801 83 147 5.0 7.0 0.00 0.00 0.00 76 1002.8
20260505191704 83 176 5.0 7.0 0.00 0.00 0.00 77 1002.7
20260505191602 83 183 4.0 7.0 0.00 0.00 0.00 78 1002.8
20260505191503 82 154 3.0 6.0 0.00 0.00 0.00 78 1002.8
20260505191404 82 168 2.0 10.0 0.00 0.00 0.00 78 1002.7
20260505191302 82 175 2.0 10.0 0.00 0.00 0.00 78 1002.7
20260505191202 82 207 2.0 10.0 0.00 0.00 0.00 77 1002.8
20260505191103 82 207 4.0 10.0 0.00 0.00 0.00 77 1002.8
20260505191005 82 233 4.0 11.0 0.00 0.00 0.00 77 1002.8
20260505190903 82 172 4.0 11.0 0.00 0.00 0.00 77 1002.8
20260505190801 82 214 4.0 11.0 0.00 0.00 0.00 77 1002.8
20260505190702 82 158 4.0 11.0 0.00 0.00 0.00 77 1002.8
20260505190604 82 179 5.0 11.0 0.00 0.00 0.00 76 1002.8
20260505190505 82 207 6.0 11.0 0.00 0.00 0.00 76 1002.8
20260505190403 82 212 5.0 11.0 0.00 0.00 0.00 77 1002.8
20260505190302 82 188 5.0 11.0 0.00 0.00 0.00 76 1002.8
20260505190204 82 199 5.0 11.0 0.00 0.00 0.00 76 1002.8
20260505190104 82 162 5.0 11.0 0.00 0.00 0.00 77 1002.8
20260505190005 82 185 4.0 10.0 0.00 0.00 0.00 77 1002.8
20260505185902 82 164 3.0 10.0 0.00 0.00 0.00 77 1002.7
20260505185802 82 186 5.0 10.0 0.00 0.00 0.00 77 1002.7
20260505185703 82 234 3.0 10.0 0.00 0.00 0.00 77 1002.7
20260505185603 82 162 4.0 10.0 0.00 0.00 0.00 77 1002.7
20260505185504 82 154 5.0 10.0 0.00 0.00 0.00 77 1002.8
20260505185402 82 185 5.0 10.0 0.00 0.00 0.00 77 1002.8
20260505185305 82 220 3.0 10.0 0.00 0.00 0.00 78 1002.7
20260505185201 82 135 2.0 10.0 0.00 0.00 0.00 78 1002.8
20260505185103 82 175 3.0 10.0 0.00 0.00 0.00 77 1002.8
20260505185004 81 175 4.0 13.0 0.00 0.00 0.00 77 1002.8
20260505184902 81 186 4.0 13.0 0.00 0.00 0.00 77 1002.8
20260505184803 81 214 4.0 13.0 0.00 0.00 0.00 77 1002.8
20260505184703 81 196 4.0 13.0 0.00 0.00 0.00 77 1002.8
20260505184603 81 173 5.0 13.0 0.00 0.00 0.00 77 1003.0
20260505184503 81 217 4.0 13.0 0.00 0.00 0.00 77 1002.9
20260505184403 81 228 5.0 13.0 0.00 0.00 0.00 77 1002.9
20260505184303 81 152 5.0 13.0 0.00 0.00 0.00 77 1002.9
20260505184202 81 207 5.0 13.0 0.00 0.00 0.00 77 1002.9
20260505184104 81 164 6.0 13.0 0.00 0.00 0.00 77 1002.9
20260505184004 81 196 6.0 11.0 0.00 0.00 0.00 77 1002.9
20260505183903 81 192 4.0 11.0 0.00 0.00 0.00 77 1003.0
20260505183805 81 193 4.0 10.0 0.00 0.00 0.00 78 1002.9
20260505183702 81 193 4.0 10.0 0.00 0.00 0.00 78 1003.1
20260505183603 81 165 4.0 10.0 0.00 0.00 0.00 78 1002.9
20260505183504 81 203 4.0 10.0 0.00 0.00 0.00 78 1002.9
20260505183403 81 217 4.0 10.0 0.00 0.00 0.00 78 1003.0
20260505183303 81 185 4.0 10.0 0.00 0.00 0.00 77 1003.0
20260505183202 81 166 5.0 10.0 0.00 0.00 0.00 78 1002.9
20260505183103 81 206 4.0 10.0 0.00 0.00 0.00 78 1003.0
20260505183004 81 151 3.0 9.0 0.00 0.00 0.00 78 1002.9
20260505182902 81 166 2.0 6.0 0.00 0.00 0.00 78 1003.0
20260505182804 81 188 3.0 6.0 0.00 0.00 0.00 78 1003.0
20260505182703 82 166 4.0 6.0 0.00 0.00 0.00 77 1002.9
20260505182604 82 186 4.0 9.0 0.00 0.00 0.00 78 1003.1
20260505182503 81 196 4.0 9.0 0.00 0.00 0.00 78 1003.1
20260505182402 81 165 4.0 9.0 0.00 0.00 0.00 78 1003.0
20260505182306 81 148 4.0 9.0 0.00 0.00 0.00 79 1003.0
20260505182202 81 202 4.0 9.0 0.00 0.00 0.00 79 1003.1
20260505182103 81 182 3.0 9.0 0.00 0.00 0.00 79 1003.1
20260505182004 81 161 2.0 9.0 0.00 0.00 0.00 79 1003.0
20260505181903 81 186 2.0 9.0 0.00 0.00 0.00 79 1003.1
20260505181802 81 193 3.0 9.0 0.00 0.00 0.00 79 1003.1
20260505181702 80 217 4.0 9.0 0.00 0.00 0.00 79 1003.1
20260505181602 80 207 4.0 9.0 0.00 0.00 0.00 79 1003.1
20260505181503 80 127 5.0 9.0 0.00 0.00 0.00 79 1003.1
20260505181403 80 185 6.0 9.0 0.00 0.00 0.00 79 1003.1
20260505181302 80 179 6.0 9.0 0.00 0.00 0.00 79 1003.1
20260505181203 80 216 5.0 9.0 0.00 0.00 0.00 79 1003.2
20260505181102 81 180 6.0 17.0 0.00 0.00 0.00 78 1003.3
20260505181006 81 166 6.0 17.0 0.00 0.00 0.00 78 1003.2
20260505180903 81 168 5.0 17.0 0.00 0.00 0.00 79 1003.2
20260505180802 81 178 5.0 17.0 0.00 0.00 0.00 79 1003.2
20260505180702 81 213 4.0 17.0 0.00 0.00 0.00 79 1003.3
20260505180603 81 197 4.0 17.0 0.00 0.00 0.00 79 1003.2
20260505180503 81 188 5.0 17.0 0.00 0.00 0.00 79 1003.2
20260505180403 81 189 5.0 17.0 0.00 0.00 0.00 79 1003.2
20260505180304 81 209 6.0 17.0 0.00 0.00 0.00 79 1003.2
20260505180204 81 196 5.0 17.0 0.00 0.00 0.00 79 1003.3
20260505180005 80 155 2.0 7.0 0.00 0.00 0.00 80 1003.3
20260505175902 80 155 3.0 7.0 0.00 0.00 0.00 80 1003.3
20260505175803 80 157 4.0 9.0 0.00 0.00 0.00 80 1003.4
20260505175702 80 185 4.0 9.0 0.00 0.00 0.00 80 1003.3
20260505175602 80 188 4.0 9.0 0.00 0.00 0.00 80 1003.4
20260505175505 80 176 3.0 9.0 0.00 0.00 0.00 80 1003.4
20260505175403 80 179 4.0 9.0 0.00 0.00 0.00 80 1003.4
20260505175305 80 186 4.0 10.0 0.00 0.00 0.00 80 1003.4
20260505175202 80 186 3.0 10.0 0.00 0.00 0.00 80 1003.4
20260505175102 80 179 3.0 10.0 0.00 0.00 0.00 80 1003.5
20260505175004 80 197 4.0 10.0 0.00 0.00 0.00 80 1003.4
20260505174902 80 207 4.0 10.0 0.00 0.00 0.00 80 1003.4
20260505174804 80 179 4.0 11.0 0.00 0.00 0.00 80 1003.5
20260505174703 80 175 4.0 11.0 0.00 0.00 0.00 80 1003.5
20260505174603 80 204 4.0 11.0 0.00 0.00 0.00 80 1003.5
20260505174502 80 197 5.0 11.0 0.00 0.00 0.00 80 1003.5
20260505174402 80 164 5.0 11.0 0.00 0.00 0.00 80 1003.5
20260505174303 80 195 6.0 11.0 0.00 0.00 0.00 80 1003.5
20260505174202 80 210 6.0 12.0 0.00 0.00 0.00 80 1003.5
20260505174103 80 188 6.0 12.0 0.00 0.00 0.00 80 1003.5
20260505174003 80 186 6.0 12.0 0.00 0.00 0.00 80 1003.5
20260505173902 80 220 6.0 12.0 0.00 0.00 0.00 80 1003.5
20260505173802 80 47 5.0 12.0 0.00 0.00 0.00 80 1003.6
20260505173702 79 165 4.0 12.0 0.00 0.00 0.00 80 1003.6
20260505173603 79 183 5.0 12.0 0.00 0.00 0.00 80 1003.5
20260505173503 79 188 5.0 12.0 0.00 0.00 0.00 80 1003.6
20260505173401 79 220 6.0 12.0 0.00 0.00 0.00 80 1003.6
20260505173302 79 219 6.0 12.0 0.00 0.00 0.00 80 1003.5
20260505173202 79 190 5.0 10.0 0.00 0.00 0.00 80 1003.6
20260505173104 79 157 5.0 10.0 0.00 0.00 0.00 80 1003.6
20260505173003 80 202 5.0 10.0 0.00 0.00 0.00 80 1003.7
20260505172903 80 234 6.0 10.0 0.00 0.00 0.00 80 1003.7
20260505172803 80 176 6.0 10.0 0.00 0.00 0.00 80 1003.6
20260505172701 80 202 5.0 9.0 0.00 0.00 0.00 80 1003.6
20260505172602 80 180 4.0 9.0 0.00 0.00 0.00 80 1003.6
20260505172502 80 135 4.0 9.0 0.00 0.00 0.00 80 1003.7
20260505172403 80 179 5.0 9.0 0.00 0.00 0.00 80 1003.6
20260505172306 80 213 5.0 9.0 0.00 0.00 0.00 80 1003.5
20260505172203 80 243 5.0 9.0 0.00 0.00 0.00 80 1003.6
20260505172104 80 185 4.0 9.0 0.00 0.00 0.00 80 1003.5
20260505172003 80 176 4.0 9.0 0.00 0.00 0.00 80 1003.6
20260505171903 80 183 5.0 9.0 0.00 0.00 0.00 80 1003.6
20260505171804 80 168 3.0 7.0 0.00 0.00 0.00 81 1003.5
20260505171704 80 128 3.0 7.0 0.00 0.00 0.00 81 1003.5
20260505171603 80 145 3.0 7.0 0.00 0.00 0.00 81 1003.5
20260505171504 80 144 3.0 7.0 0.00 0.00 0.00 81 1003.6
20260505171404 80 161 3.0 9.0 0.00 0.00 0.00 81 1003.5
20260505171303 79 162 3.0 9.0 0.00 0.00 0.00 81 1003.5
20260505171203 79 175 3.0 9.0 0.00 0.00 0.00 81 1003.5
20260505171104 79 148 3.0 9.0 0.00 0.00 0.00 81 1003.5
20260505171003 79 157 2.0 9.0 0.00 0.00 0.00 81 1003.5
20260505170903 79 179 4.0 9.0 0.00 0.00 0.00 81 1003.5
20260505170802 79 182 4.0 9.0 0.00 0.00 0.00 81 1003.5
20260505170703 79 216 5.0 9.0 0.00 0.00 0.00 81 1003.5
20260505170601 79 183 6.0 9.0 0.00 0.00 0.00 81 1003.4
20260505170504 79 209 4.0 11.0 0.00 0.00 0.00 81 1003.5
20260505170403 79 200 3.0 11.0 0.00 0.00 0.00 81 1003.6
20260505170302 79 128 4.0 11.0 0.00 0.00 0.00 81 1003.5
20260505170201 79 228 4.0 11.0 0.00 0.00 0.00 81 1003.6
20260505170003 79 165 5.0 11.0 0.00 0.00 0.00 81 1003.6
20260505165903 79 182 6.0 11.0 0.00 0.00 0.00 81 1003.5
20260505165803 79 217 6.0 11.0 0.00 0.00 0.00 81 1003.6
20260505165703 79 148 6.0 11.0 0.00 0.00 0.00 82 1003.7
20260505165603 79 189 6.0 11.0 0.00 0.00 0.00 82 1003.6
20260505165503 79 202 5.0 11.0 0.00 0.00 0.00 82 1003.6
20260505165403 79 142 4.0 11.0 0.00 0.00 0.00 82 1003.7
20260505165302 79 196 5.0 11.0 0.00 0.00 0.00 82 1003.6
20260505165203 79 227 5.0 11.0 0.00 0.00 0.00 82 1003.7
20260505165102 79 188 5.0 11.0 0.00 0.00 0.00 82 1003.7
20260505165005 79 231 5.0 11.0 0.00 0.00 0.00 82 1003.6
20260505164902 79 168 3.0 9.0 0.00 0.00 0.00 82 1003.7
20260505164803 79 188 3.0 9.0 0.00 0.00 0.00 82 1003.8
20260505164701 79 189 3.0 9.0 0.00 0.00 0.00 82 1003.7
20260505164603 79 219 5.0 9.0 0.00 0.00 0.00 83 1003.6
20260505164503 79 173 4.0 9.0 0.00 0.00 0.00 83 1003.7
20260505164404 79 131 2.0 6.0 0.00 0.00 0.00 83 1003.6
20260505164302 79 217 2.0 6.0 0.00 0.00 0.00 83 1003.6
20260505164203 79 142 3.0 7.0 0.00 0.00 0.00 82 1003.7
20260505164102 79 142 4.0 7.0 0.00 0.00 0.00 82 1003.7
20260505164002 79 178 3.0 7.0 0.00 0.00 0.00 82 1003.6
20260505163903 79 195 3.0 7.0 0.00 0.00 0.00 82 1003.6
20260505163802 79 192 2.0 7.0 0.00 0.00 0.00 82 1003.5
20260505163704 79 168 2.0 9.0 0.00 0.00 0.00 82 1003.6
20260505163603 79 193 3.0 9.0 0.00 0.00 0.00 82 1003.6
20260505163503 79 185 4.0 9.0 0.00 0.00 0.00 82 1003.7
20260505163402 79 171 4.0 9.0 0.00 0.00 0.00 82 1003.7
20260505163302 79 168 3.0 9.0 0.00 0.00 0.00 82 1003.6
20260505163203 79 175 3.0 9.0 0.00 0.00 0.00 82 1003.6
20260505163104 79 212 4.0 9.0 0.00 0.00 0.00 82 1003.6
20260505163004 79 178 4.0 9.0 0.00 0.00 0.00 82 1003.6
20260505162902 79 199 5.0 9.0 0.00 0.00 0.00 82 1003.6
20260505162803 79 216 5.0 9.0 0.00 0.00 0.00 83 1003.6
20260505162702 79 178 4.0 7.0 0.00 0.00 0.00 83 1003.6
20260505162605 79 195 3.0 7.0 0.00 0.00 0.00 83 1003.6
20260505162502 79 152 2.0 7.0 0.00 0.00 0.00 83 1003.7
20260505162403 78 175 4.0 7.0 0.00 0.00 0.00 83 1003.6
20260505162306 78 192 5.0 7.0 0.00 0.00 0.00 83 1003.7
20260505162203 78 168 4.0 7.0 0.00 0.00 0.00 83 1003.6
20260505162104 78 196 4.0 7.0 0.00 0.00 0.00 83 1003.6
20260505162002 78 200 4.0 7.0 0.00 0.00 0.00 83 1003.6
20260505161902 78 199 4.0 7.0 0.00 0.00 0.00 83 1003.6
20260505161803 78 189 5.0 7.0 0.00 0.00 0.00 83 1003.6
20260505161702 78 182 5.0 7.0 0.00 0.00 0.00 83 1003.6
20260505161603 78 212 4.0 7.0 0.00 0.00 0.00 83 1003.6
20260505161504 78 197 4.0 7.0 0.00 0.00 0.00 83 1003.6
20260505161402 78 209 5.0 7.0 0.00 0.00 0.00 83 1003.6
20260505161302 78 204 4.0 9.0 0.00 0.00 0.00 83 1003.6
20260505161203 78 202 3.0 9.0 0.00 0.00 0.00 83 1003.7
20260505161104 78 168 3.0 9.0 0.00 0.00 0.00 83 1003.6
20260505161003 78 212 3.0 9.0 0.00 0.00 0.00 83 1003.7
20260505160903 78 207 2.0 9.0 0.00 0.00 0.00 83 1003.6
20260505160802 78 165 1.0 9.0 0.00 0.00 0.00 83 1003.6
20260505160703 78 188 2.0 9.0 0.00 0.00 0.00 83 1003.6
20260505160603 78 185 3.0 9.0 0.00 0.00 0.00 83 1003.6
20260505160502 78 182 4.0 9.0 0.00 0.00 0.00 83 1003.6
20260505160402 78 176 5.0 9.0 0.00 0.00 0.00 83 1003.6
20260505160304 78 209 6.0 9.0 0.00 0.00 0.00 84 1003.5
20260505160203 78 195 5.0 9.0 0.00 0.00 0.00 84 1003.5
20260505160104 78 172 4.0 9.0 0.00 0.00 0.00 84 1003.5
20260505153303 77 152 6.0 10.0 0.00 0.00 0.00 86 1003.3
20260505153203 77 192 4.0 9.0 0.00 0.00 0.00 86 1003.3
20260505153104 77 175 3.0 9.0 0.00 0.00 0.00 86 1003.3
20260505153004 77 185 3.0 9.0 0.00 0.00 0.00 87 1003.2
20260505152902 76 166 4.0 9.0 0.00 0.00 0.00 87 1003.2
20260505152801 76 157 4.0 9.0 0.00 0.00 0.00 87 1003.3
20260505152702 76 157 4.0 9.0 0.00 0.00 0.00 87 1003.2
20260505152603 76 158 4.0 9.0 0.00 0.00 0.00 87 1003.3
20260505152504 76 168 4.0 9.0 0.00 0.00 0.00 87 1003.3
20260505152404 76 138 4.0 9.0 0.00 0.00 0.00 88 1003.4
20260505152305 76 190 5.0 9.0 0.00 0.00 0.00 88 1003.4
20260505152202 76 166 4.0 9.0 0.00 0.00 0.00 88 1003.4
20260505152104 76 137 4.0 7.0 0.00 0.00 0.00 88 1003.4
20260505152004 76 158 3.0 7.0 0.00 0.00 0.00 88 1003.4
20260505151903 76 171 3.0 7.0 0.00 0.00 0.00 88 1003.4
20260505151803 75 145 4.0 7.0 0.00 0.00 0.00 88 1003.4
20260505151703 75 183 4.0 7.0 0.00 0.00 0.00 88 1003.4
20260505151603 75 131 3.0 6.0 0.00 0.00 0.00 88 1003.3
20260505151502 75 164 3.0 6.0 0.00 0.00 0.00 88 1003.4
20260505151403 75 164 4.0 6.0 0.00 0.00 0.00 88 1003.4
20260505151304 75 180 4.0 6.0 0.00 0.00 0.00 88 1003.4
20260505151204 75 217 4.0 6.0 0.00 0.00 0.00 88 1003.4
20260505151104 75 209 2.0 7.0 0.00 0.00 0.00 88 1003.4
20260505151003 75 161 2.0 9.0 0.00 0.00 0.00 88 1003.5
20260505150904 75 158 3.0 10.0 0.00 0.00 0.00 87 1003.5
20260505150803 75 165 3.0 10.0 0.00 0.00 0.00 87 1003.4
20260505150703 75 173 3.0 10.0 0.00 0.00 0.00 87 1003.4
20260505150603 75 202 3.0 10.0 0.00 0.00 0.00 87 1003.4
20260505150502 76 161 4.0 10.0 0.00 0.00 0.00 87 1003.4
20260505150402 75 192 4.0 10.0 0.00 0.00 0.00 87 1003.4
20260505150303 76 220 4.0 10.0 0.00 0.00 0.00 87 1003.4
20260505150203 76 195 5.0 10.0 0.00 0.00 0.00 87 1003.4
20260505140602 76 149 5.0 15.0 0.00 0.00 0.00 86 1003.1
20260505140503 76 149 4.0 14.0 0.00 0.00 0.00 87 1003.0
20260505140403 76 155 4.0 14.0 0.00 0.00 0.00 87 1003.0
20260505140303 76 178 4.0 14.0 0.00 0.00 0.00 87 1002.8
20260505140203 76 166 3.0 14.0 0.00 0.00 0.00 87 1002.8
20260505140104 76 116 3.0 14.0 0.00 0.00 0.00 87 1002.8
20260505130312 73 173 3.0 6.0 0.00 0.00 0.00 89 1003.0
20260505130212 73 188 4.0 6.0 0.00 0.00 0.00 89 1003.0
20260505130113 73 149 3.0 6.0 0.00 0.00 0.00 89 1003.0
20260505125012 73 144 3.0 5.0 0.00 0.00 0.00 90 1003.0
20260505124914 73 130 3.0 5.0 0.00 0.00 0.00 90 1003.1
20260505124813 73 118 3.0 5.0 0.00 0.00 0.00 90 1003.1
20260505124713 72 157 3.0 5.0 0.00 0.00 0.00 90 1003.1
20260505124614 72 169 2.0 5.0 0.00 0.00 0.00 90 1003.0
20260505124512 72 171 2.0 5.0 0.00 0.00 0.00 90 1003.0
20260505124411 72 175 2.0 5.0 0.00 0.00 0.00 90 1002.9
20260505124312 72 159 2.0 6.0 0.00 0.00 0.00 90 1003.1
20260505124213 72 128 2.0 6.0 0.00 0.00 0.00 90 1002.8
20260505124113 72 165 1.0 6.0 0.00 0.00 0.00 90 1003.0
20260505124013 72 162 2.0 6.0 0.00 0.00 0.00 90 1002.9
20260505123913 72 164 3.0 6.0 0.00 0.00 0.00 90 1003.0
20260505123812 72 157 3.0 6.0 0.00 0.00 0.00 90 1002.9
20260505123711 72 154 3.0 6.0 0.00 0.00 0.00 90 1003.0
20260505123613 72 140 3.0 6.0 0.00 0.00 0.00 90 1003.0
20260505123513 72 178 3.0 6.0 0.00 0.00 0.00 90 1003.0
20260505123412 72 130 3.0 6.0 0.00 0.00 0.00 90 1002.9
20260505123313 72 166 2.0 4.0 0.00 0.00 0.00 90 1003.1
20260505123211 72 137 2.0 4.0 0.00 0.00 0.00 90 1003.0
20260505123111 72 130 3.0 4.0 0.00 0.00 0.00 90 1002.9
20260505123013 72 148 2.0 4.0 0.00 0.00 0.00 90 1002.9
20260505122911 72 158 2.0 4.0 0.00 0.00 0.00 90 1002.9
20260505122813 72 154 2.0 4.0 0.00 0.00 0.00 90 1002.8
20260505122711 72 154 2.0 4.0 0.00 0.00 0.00 90 1002.8
20260505122611 72 162 2.0 4.0 0.00 0.00 0.00 90 1002.8
20260505122513 72 162 2.0 4.0 0.00 0.00 0.00 90 1002.9
20260505122411 72 149 2.0 4.0 0.00 0.00 0.00 91 1002.7
20260505122312 71 145 2.0 4.0 0.00 0.00 0.00 91 1002.7
20260505122214 71 147 2.0 4.0 0.00 0.00 0.00 91 1002.8
20260505122112 71 149 2.0 3.0 0.00 0.00 0.00 91 1002.8
20260505122013 71 154 1.0 3.0 0.00 0.00 0.00 91 1002.8
20260505121911 71 154 1.0 3.0 0.00 0.00 0.00 91 1002.8
20260505121811 71 157 1.0 3.0 0.00 0.00 0.00 91 1002.7
20260505121714 71 162 1.0 3.0 0.00 0.00 0.00 91 1002.8
20260505121613 71 164 1.0 3.0 0.00 0.00 0.00 91 1002.6
20260505121511 71 164 2.0 3.0 0.00 0.00 0.00 91 1002.7
20260505121411 71 161 2.0 3.0 0.00 0.00 0.00 91 1002.7
20260505121311 71 162 2.0 3.0 0.00 0.00 0.00 90 1002.8
20260505121211 71 154 1.0 3.0 0.00 0.00 0.00 91 1002.8
20260505121113 71 151 1.0 3.0 0.00 0.00 0.00 90 1002.9
20260505121011 71 151 0.0 3.0 0.00 0.00 0.00 90 1002.8
20260505120912 71 154 1.0 3.0 0.00 0.00 0.00 90 1002.8
20260505120811 71 152 1.0 5.0 0.00 0.00 0.00 90 1002.8
20260505120713 71 152 1.0 5.0 0.00 0.00 0.00 90 1002.8
20260505120611 71 149 2.0 5.0 0.00 0.00 0.00 90 1002.7
20260505120512 71 145 2.0 5.0 0.00 0.00 0.00 90 1002.6
20260505120412 71 154 1.0 5.0 0.00 0.00 0.00 90 1002.6
20260505120312 71 152 1.0 5.0 0.00 0.00 0.00 90 1002.6
20260505120212 71 151 1.0 5.0 0.00 0.00 0.00 90 1002.6
20260505120111 71 149 1.0 5.0 0.00 0.00 0.00 90 1002.6
20260505120013 71 154 2.0 5.0 0.00 0.00 0.00 90 1002.5
20260505115910 71 157 2.0 5.0 0.00 0.00 0.00 90 1002.6
20260505115810 71 165 2.0 5.0 0.00 0.00 0.00 90 1002.5
20260505115711 71 145 1.0 5.0 0.00 0.00 0.00 90 1002.6
20260505115610 71 151 1.0 5.0 0.00 0.00 0.00 90 1002.5
20260505115511 71 151 2.0 5.0 0.00 0.00 0.00 90 1002.5
20260505115411 71 155 2.0 5.0 0.00 0.00 0.00 90 1002.6
20260505115311 71 155 2.0 5.0 0.00 0.00 0.00 90 1002.6
20260505115210 71 157 2.0 5.0 0.00 0.00 0.00 90 1002.6
20260505115112 71 166 2.0 5.0 0.00 0.00 0.00 90 1002.6
20260505115010 71 157 2.0 5.0 0.00 0.00 0.00 90 1002.4
20260505114912 71 152 1.0 5.0 0.00 0.00 0.00 90 1002.4
20260505114811 71 147 1.0 5.0 0.00 0.00 0.00 90 1002.3
20260505114710 71 149 1.0 5.0 0.00 0.00 0.00 90 1002.4
20260505114611 71 142 2.0 5.0 0.00 0.00 0.00 90 1002.3
20260505114511 71 152 2.0 5.0 0.00 0.00 0.00 90 1002.2
20260505114410 71 141 2.0 5.0 0.00 0.00 0.00 90 1002.2
20260505114311 71 155 2.0 6.0 0.00 0.00 0.00 90 1002.2
20260505114210 71 158 2.0 6.0 0.00 0.00 0.00 90 1002.2
20260505114110 71 159 2.0 6.0 0.00 0.00 0.00 90 1002.3
20260505114011 71 130 1.0 6.0 0.00 0.00 0.00 90 1002.3
20260505113911 71 157 1.0 6.0 0.00 0.00 0.00 90 1002.4
20260505113810 71 157 2.0 6.0 0.00 0.00 0.00 90 1002.5
20260505113710 71 159 2.0 6.0 0.00 0.00 0.00 90 1002.5
20260505113610 71 186 3.0 6.0 0.00 0.00 0.00 90 1002.6
20260505113511 71 154 3.0 6.0 0.00 0.00 0.00 90 1002.6
20260505113413 71 210 2.0 6.0 0.00 0.00 0.00 90 1002.5
20260505113311 71 166 1.0 3.0 0.00 0.00 0.00 90 1002.6
20260505113211 71 166 1.0 3.0 0.00 0.00 0.00 90 1002.6
20260505113111 71 168 0.0 4.0 0.00 0.00 0.00 90 1002.7
20260505113010 71 168 0.0 4.0 0.00 0.00 0.00 90 1002.7
20260505112910 71 168 1.0 4.0 0.00 0.00 0.00 90 1002.8
20260505112811 71 169 1.0 4.0 0.00 0.00 0.00 90 1002.8
20260505112710 71 168 2.0 4.0 0.00 0.00 0.00 90 1002.7
20260505112611 71 165 2.0 4.0 0.00 0.00 0.00 90 1002.8
20260505112510 71 133 2.0 5.0 0.00 0.00 0.00 90 1002.7
20260505112410 71 155 2.0 5.0 0.00 0.00 0.00 90 1002.6
20260505112311 71 173 2.0 5.0 0.00 0.00 0.00 90 1002.6
20260505112212 71 166 2.0 5.0 0.00 0.00 0.00 90 1002.7
20260505112111 71 166 2.0 5.0 0.00 0.00 0.00 90 1002.7
20260505112010 71 155 2.0 5.0 0.00 0.00 0.00 90 1002.6
20260505111911 71 154 1.0 5.0 0.00 0.00 0.00 90 1002.7
20260505111811 71 164 2.0 5.0 0.00 0.00 0.00 90 1002.7
20260505111709 71 130 2.0 5.0 0.00 0.00 0.00 90 1002.7
20260505111611 71 140 2.0 5.0 0.00 0.00 0.00 90 1002.7
20260505111510 71 169 2.0 5.0 0.00 0.00 0.00 90 1002.6
20260505111410 71 166 2.0 5.0 0.00 0.00 0.00 90 1002.6
20260505111311 71 152 2.0 5.0 0.00 0.00 0.00 90 1002.5
20260505111210 71 162 2.0 5.0 0.00 0.00 0.00 90 1002.5
20260505111110 71 147 1.0 5.0 0.00 0.00 0.00 90 1002.4
20260505111011 71 137 2.0 5.0 0.00 0.00 0.00 90 1002.4
20260505110910 71 157 2.0 5.0 0.00 0.00 0.00 90 1002.4
20260505110811 71 161 3.0 5.0 0.00 0.00 0.00 90 1002.4
20260505110711 71 123 1.0 4.0 0.00 0.00 0.00 90 1002.4
20260505110610 71 149 1.0 4.0 0.00 0.00 0.00 90 1002.4
20260505110510 71 151 2.0 6.0 0.00 0.00 0.00 90 1002.4
20260505110410 71 148 2.0 6.0 0.00 0.00 0.00 90 1002.5
20260505110311 71 157 2.0 6.0 0.00 0.00 0.00 90 1002.4
20260505110210 71 157 2.0 6.0 0.00 0.00 0.00 90 1002.4
20260505110111 71 157 2.0 6.0 0.00 0.00 0.00 90 1002.3
20260505102209 71 140 2.0 7.0 0.00 0.00 0.00 89 1002.7
20260505102109 71 158 2.0 7.0 0.00 0.00 0.00 89 1002.7
20260505102010 71 148 2.0 5.0 0.00 0.00 0.00 89 1002.6
20260505101908 71 147 2.0 5.0 0.00 0.00 0.00 89 1002.6
20260505101809 71 173 2.0 5.0 0.00 0.00 0.00 89 1002.6
20260505101708 71 162 2.0 6.0 0.00 0.00 0.00 89 1002.6
20260505101609 71 121 2.0 6.0 0.00 0.00 0.00 89 1002.6
20260505101510 71 180 2.0 6.0 0.00 0.00 0.00 89 1002.6
20260505101408 71 166 2.0 9.0 0.00 0.00 0.00 89 1002.6
20260505101308 71 142 3.0 10.0 0.00 0.00 0.00 89 1002.6
20260505101209 71 192 3.0 10.0 0.00 0.00 0.00 89 1002.5
20260505101109 71 152 3.0 10.0 0.00 0.00 0.00 89 1002.5
20260505101009 71 140 3.0 10.0 0.00 0.00 0.00 89 1002.5
20260505100909 71 116 3.0 10.0 0.00 0.00 0.00 89 1002.5
20260505100810 71 173 2.0 10.0 0.00 0.00 0.00 89 1002.5
20260505100709 71 142 2.0 10.0 0.00 0.00 0.00 89 1002.5
20260505100610 71 162 4.0 10.0 0.00 0.00 0.00 89 1002.5
20260505100509 71 134 4.0 10.0 0.00 0.00 0.00 89 1002.5
20260505100409 71 141 3.0 10.0 0.00 0.00 0.00 89 1002.5
20260505100309 71 155 3.0 9.0 0.00 0.00 0.00 89 1002.5
20260505100210 71 141 4.0 9.0 0.00 0.00 0.00 89 1002.5
20260505100108 71 145 2.0 6.0 0.00 0.00 0.00 89 1002.5
20260505100009 71 125 2.0 5.0 0.00 0.00 0.00 89 1002.5
20260505095910 71 149 2.0 5.0 0.00 0.00 0.00 89 1002.6
20260505095810 71 147 2.0 5.0 0.00 0.00 0.00 89 1002.6
20260505095709 71 162 2.0 5.0 0.00 0.00 0.00 89 1002.6
20260505095609 71 155 2.0 6.0 0.00 0.00 0.00 89 1002.6
20260505095509 71 155 2.0 6.0 0.00 0.00 0.00 89 1002.6
20260505095411 71 179 2.0 6.0 0.00 0.00 0.00 89 1002.8
20260505095308 71 144 2.0 6.0 0.00 0.00 0.00 89 1002.8
20260505095208 71 182 2.0 6.0 0.00 0.00 0.00 89 1002.8
20260505095110 71 186 1.0 6.0 0.00 0.00 0.00 89 1002.8
20260505095010 71 159 0.0 6.0 0.00 0.00 0.00 89 1002.8
20260505094910 71 159 1.0 6.0 0.00 0.00 0.00 89 1002.9
20260505094809 71 138 2.0 6.0 0.00 0.00 0.00 89 1002.9
20260505094709 71 138 3.0 6.0 0.00 0.00 0.00 89 1002.9
20260505094609 71 182 1.0 6.0 0.00 0.00 0.00 89 1002.8
20260505094509 71 166 1.0 6.0 0.00 0.00 0.00 89 1002.8
20260505094408 71 169 2.0 6.0 0.00 0.00 0.00 89 1002.8
20260505094309 71 175 2.0 6.0 0.00 0.00 0.00 89 1002.8
20260505094207 71 155 2.0 6.0 0.00 0.00 0.00 89 1002.7
20260505094109 71 141 3.0 6.0 0.00 0.00 0.00 89 1002.7
20260505094010 71 133 2.0 5.0 0.00 0.00 0.00 89 1002.7
20260505093910 71 172 2.0 5.0 0.00 0.00 0.00 89 1002.6
20260505093808 71 161 3.0 5.0 0.00 0.00 0.00 89 1002.5
20260505093707 71 149 2.0 5.0 0.00 0.00 0.00 89 1002.4
20260505093607 71 148 2.0 6.0 0.00 0.00 0.00 89 1002.5
20260505093509 71 197 4.0 6.0 0.00 0.00 0.00 89 1002.4
20260505093408 71 125 3.0 7.0 0.00 0.00 0.00 89 1002.5
20260505093308 71 161 1.0 7.0 0.00 0.00 0.00 89 1002.4
20260505093209 71 154 1.0 7.0 0.00 0.00 0.00 89 1002.5
20260505093109 71 157 1.0 7.0 0.00 0.00 0.00 89 1002.5
20260505093010 71 169 2.0 7.0 0.00 0.00 0.00 89 1002.5
20260505092908 71 171 2.0 7.0 0.00 0.00 0.00 89 1002.6
20260505092808 71 161 3.0 7.0 0.00 0.00 0.00 89 1002.7
20260505092708 71 166 4.0 7.0 0.00 0.00 0.00 89 1002.6
20260505092609 71 178 4.0 7.0 0.00 0.00 0.00 89 1002.6
20260505092509 71 165 4.0 7.0 0.00 0.00 0.00 89 1002.6
20260505092409 71 168 2.0 6.0 0.00 0.00 0.00 89 1002.6
20260505092307 71 176 2.0 6.0 0.00 0.00 0.00 89 1002.7
20260505092210 71 166 2.0 6.0 0.00 0.00 0.00 89 1002.6
20260505092108 71 171 2.0 6.0 0.00 0.00 0.00 89 1002.7
20260505092008 71 178 2.0 6.0 0.00 0.00 0.00 88 1002.7
20260505091908 71 144 2.0 6.0 0.00 0.00 0.00 89 1002.7
20260505091807 71 144 3.0 6.0 0.00 0.00 0.00 88 1002.7
20260505091709 71 111 3.0 6.0 0.00 0.00 0.00 88 1002.7
20260505091609 71 171 2.0 6.0 0.00 0.00 0.00 89 1002.7
20260505091507 71 135 2.0 6.0 0.00 0.00 0.00 88 1002.8
20260505091407 71 134 3.0 6.0 0.00 0.00 0.00 88 1002.8
20260505091308 71 172 2.0 6.0 0.00 0.00 0.00 88 1002.8
20260505091208 71 162 2.0 4.0 0.00 0.00 0.00 88 1002.9
20260505091108 71 151 2.0 4.0 0.00 0.00 0.00 88 1002.8
20260505091007 71 152 1.0 4.0 0.00 0.00 0.00 88 1002.9
20260505090909 71 172 0.0 4.0 0.00 0.00 0.00 88 1002.9
20260505090807 71 172 0.0 4.0 0.00 0.00 0.00 88 1003.0
20260505090708 71 172 1.0 4.0 0.00 0.00 0.00 88 1002.9
20260505090609 71 157 1.0 4.0 0.00 0.00 0.00 88 1002.9
20260505090507 71 155 0.0 4.0 0.00 0.00 0.00 88 1002.9
20260505090408 71 155 1.0 4.0 0.00 0.00 0.00 88 1003.0
20260505090309 71 157 1.0 4.0 0.00 0.00 0.00 88 1003.0
20260505090208 71 152 2.0 4.0 0.00 0.00 0.00 88 1003.0
20260505090107 71 151 1.0 4.0 0.00 0.00 0.00 88 1002.9
20260505090008 71 164 0.0 3.0 0.00 0.00 0.00 88 1003.0
20260505085907 71 164 1.0 3.0 0.00 0.00 0.00 88 1002.9
20260505085808 71 164 1.0 3.0 0.00 0.00 0.00 88 1002.9
20260505085707 71 164 1.0 3.0 0.00 0.00 0.00 88 1003.0
20260505085608 71 164 1.0 3.0 0.00 0.00 0.00 88 1002.9
20260505085506 71 164 2.0 5.0 0.00 0.00 0.00 88 1002.9
20260505085406 71 165 1.0 5.0 0.00 0.00 0.00 88 1003.0
20260505085308 71 165 1.0 5.0 0.00 0.00 0.00 88 1003.1
20260505085207 71 164 2.0 5.0 0.00 0.00 0.00 88 1003.1
20260505085108 71 161 1.0 5.0 0.00 0.00 0.00 88 1002.9
20260505085006 71 165 1.0 5.0 0.00 0.00 0.00 88 1002.9
20260505084906 71 168 1.0 6.0 0.00 0.00 0.00 88 1002.9
20260505084808 71 168 2.0 6.0 0.00 0.00 0.00 88 1002.9
20260505084706 71 171 1.0 6.0 0.00 0.00 0.00 88 1002.9
20260505084608 71 135 1.0 6.0 0.00 0.00 0.00 88 1003.0
20260505084507 71 162 1.0 6.0 0.00 0.00 0.00 88 1003.0
20260505084406 71 169 2.0 6.0 0.00 0.00 0.00 88 1003.1
20260505084307 71 165 2.0 6.0 0.00 0.00 0.00 88 1003.1
20260505084207 71 138 2.0 6.0 0.00 0.00 0.00 88 1002.9
20260505084104 71 155 3.0 6.0 0.00 0.00 0.00 88 1002.9
20260505084004 71 164 3.0 6.0 0.00 0.00 0.00 88 1002.9
20260505083902 71 130 3.0 4.0 0.00 0.00 0.00 88 1002.9
20260505083803 71 165 2.0 5.0 0.00 0.00 0.00 88 1003.0
20260505083703 71 149 2.0 5.0 0.00 0.00 0.00 88 1003.0
20260505083604 71 169 2.0 5.0 0.00 0.00 0.00 88 1002.9
20260505083502 71 175 3.0 5.0 0.00 0.00 0.00 88 1003.0
20260505083402 71 149 2.0 5.0 0.00 0.00 0.00 88 1002.9
20260505083303 71 140 2.0 5.0 0.00 0.00 0.00 88 1003.0
20260505083203 71 128 2.0 5.0 0.00 0.00 0.00 88 1003.0
20260505083102 71 164 2.0 5.0 0.00 0.00 0.00 88 1003.0
20260505083005 71 165 1.0 5.0 0.00 0.00 0.00 88 1003.1
20260505082902 71 166 1.0 5.0 0.00 0.00 0.00 88 1003.0
20260505082801 71 148 1.0 4.0 0.00 0.00 0.00 88 1003.0
20260505082702 71 148 1.0 4.0 0.00 0.00 0.00 88 1003.2
20260505082602 71 148 2.0 5.0 0.00 0.00 0.00 88 1003.2
20260505082503 71 148 2.0 5.0 0.00 0.00 0.00 88 1003.2
20260505082404 71 148 1.0 5.0 0.00 0.00 0.00 88 1003.2
20260505082304 71 141 2.0 5.0 0.00 0.00 0.00 88 1003.2
20260505082203 71 141 2.0 5.0 0.00 0.00 0.00 88 1003.2
20260505082103 71 144 1.0 5.0 0.00 0.00 0.00 88 1003.3
20260505082006 71 144 0.0 5.0 0.00 0.00 0.00 88 1003.3
20260505081903 71 144 1.0 5.0 0.00 0.00 0.00 88 1003.4
20260505081805 71 144 1.0 6.0 0.00 0.00 0.00 88 1003.3
20260505081701 71 137 1.0 6.0 0.00 0.00 0.00 88 1003.3
20260505081603 71 151 2.0 6.0 0.00 0.00 0.00 88 1003.4
20260505081503 71 152 2.0 6.0 0.00 0.00 0.00 88 1003.4
20260505081403 71 157 2.0 6.0 0.00 0.00 0.00 88 1003.3
20260505081301 71 154 2.0 6.0 0.00 0.00 0.00 88 1003.4
20260505081202 71 162 2.0 6.0 0.00 0.00 0.00 88 1003.4
20260505081104 71 165 2.0 6.0 0.00 0.00 0.00 88 1003.4
20260505081004 71 145 2.0 6.0 0.00 0.00 0.00 87 1003.4
20260505080902 71 157 2.0 6.0 0.00 0.00 0.00 87 1003.4
20260505080802 71 189 1.0 3.0 0.00 0.00 0.00 87 1003.4
20260505080703 71 155 1.0 3.0 0.00 0.00 0.00 87 1003.3
20260505080603 71 155 2.0 4.0 0.00 0.00 0.00 87 1003.4
20260505080503 71 155 2.0 4.0 0.00 0.00 0.00 87 1003.3
20260505080402 71 159 2.0 4.0 0.00 0.00 0.00 87 1003.4
20260505080302 71 172 1.0 4.0 0.00 0.00 0.00 87 1003.3
20260505080203 71 176 1.0 4.0 0.00 0.00 0.00 87 1003.3
20260505080103 71 176 2.0 4.0 0.00 0.00 0.00 87 1003.3
20260505080004 71 192 2.0 6.0 0.00 0.00 0.00 87 1003.3
20260505075904 71 157 1.0 6.0 0.00 0.00 0.00 87 1003.3
20260505075802 71 159 1.0 6.0 0.00 0.00 0.00 87 1003.3
20260505075705 71 159 1.0 6.0 0.00 0.00 0.00 87 1003.3
20260505075603 71 173 1.0 6.0 0.00 0.00 0.00 87 1003.3
20260505075503 71 175 1.0 6.0 0.00 0.00 0.00 87 1003.4
20260505075404 71 186 2.0 6.0 0.00 0.00 0.00 87 1003.4
20260505075304 71 186 2.0 6.0 0.00 0.00 0.00 87 1003.4
20260505075203 71 155 3.0 6.0 0.00 0.00 0.00 87 1003.4
20260505075102 71 152 2.0 6.0 0.00 0.00 0.00 87 1003.4
20260505075003 71 161 1.0 5.0 0.00 0.00 0.00 87 1003.4
20260505074905 71 157 2.0 5.0 0.00 0.00 0.00 87 1003.4
20260505074802 71 165 3.0 5.0 0.00 0.00 0.00 87 1003.5
20260505074702 71 145 2.0 4.0 0.00 0.00 0.00 87 1003.5
20260505074604 71 162 1.0 4.0 0.00 0.00 0.00 87 1003.5
20260505074502 71 164 1.0 5.0 0.00 0.00 0.00 87 1003.5
20260505074404 71 172 1.0 5.0 0.00 0.00 0.00 87 1003.5
20260505074303 71 171 2.0 5.0 0.00 0.00 0.00 87 1003.5
20260505074204 71 172 2.0 5.0 0.00 0.00 0.00 87 1003.5
20260505074103 71 168 2.0 5.0 0.00 0.00 0.00 87 1003.6
20260505074004 71 161 2.0 5.0 0.00 0.00 0.00 87 1003.5
20260505073902 71 165 2.0 5.0 0.00 0.00 0.00 87 1003.5
20260505073802 71 217 1.0 5.0 0.00 0.00 0.00 87 1003.5
20260505073705 71 151 2.0 5.0 0.00 0.00 0.00 87 1003.5
20260505073602 71 151 2.0 5.0 0.00 0.00 0.00 87 1003.5
20260505073501 71 149 2.0 5.0 0.00 0.00 0.00 86 1003.4
20260505073402 71 178 2.0 4.0 0.00 0.00 0.00 86 1003.4
20260505073303 71 144 2.0 4.0 0.00 0.00 0.00 86 1003.5
20260505073204 71 141 2.0 4.0 0.00 0.00 0.00 86 1003.4
20260505073102 71 176 1.0 4.0 0.00 0.00 0.00 86 1003.4
20260505073004 71 172 1.0 4.0 0.00 0.00 0.00 86 1003.5
20260505072903 71 169 2.0 4.0 0.00 0.00 0.00 86 1003.4
20260505072803 71 171 2.0 4.0 0.00 0.00 0.00 86 1003.4
20260505072702 71 162 1.0 4.0 0.00 0.00 0.00 86 1003.5
20260505072603 71 162 2.0 4.0 0.00 0.00 0.00 86 1003.5
20260505072504 71 162 2.0 4.0 0.00 0.00 0.00 86 1003.5
20260505072403 71 162 1.0 4.0 0.00 0.00 0.00 86 1003.5
20260505072305 71 162 1.0 4.0 0.00 0.00 0.00 86 1003.5
20260505072202 71 165 1.0 6.0 0.00 0.00 0.00 86 1003.6
20260505072103 71 166 1.0 6.0 0.00 0.00 0.00 86 1003.6
20260505072004 71 169 1.0 6.0 0.00 0.00 0.00 86 1003.6
20260505071903 71 125 1.0 6.0 0.00 0.00 0.00 86 1003.6
20260505071803 71 125 1.0 6.0 0.00 0.00 0.00 86 1003.5
20260505071702 71 124 2.0 6.0 0.00 0.00 0.00 86 1003.6
20260505071603 71 124 2.0 6.0 0.00 0.00 0.00 86 1003.5
20260505071503 71 157 1.0 6.0 0.00 0.00 0.00 86 1003.5
20260505071402 71 157 2.0 6.0 0.00 0.00 0.00 86 1003.5
20260505071304 71 155 2.0 6.0 0.00 0.00 0.00 86 1003.5
20260505071203 71 155 2.0 6.0 0.00 0.00 0.00 86 1003.6
20260505071105 71 155 3.0 6.0 0.00 0.00 0.00 86 1003.6
20260505071002 71 158 2.0 5.0 0.00 0.00 0.00 86 1003.6
20260505070902 71 155 2.0 5.0 0.00 0.00 0.00 86 1003.7
20260505070804 71 185 2.0 5.0 0.00 0.00 0.00 86 1003.6
20260505070703 71 137 3.0 5.0 0.00 0.00 0.00 86 1003.6
20260505070604 71 151 2.0 5.0 0.00 0.00 0.00 86 1003.6
20260505070504 71 162 2.0 4.0 0.00 0.00 0.00 86 1003.6
20260505070403 71 185 1.0 7.0 0.00 0.00 0.00 86 1003.6
20260505070303 71 175 1.0 7.0 0.00 0.00 0.00 85 1003.6
20260505070204 71 175 1.0 7.0 0.00 0.00 0.00 85 1003.6
20260505070002 71 166 1.0 7.0 0.00 0.00 0.00 86 1003.5
20260505065902 71 165 1.0 7.0 0.00 0.00 0.00 86 1003.6
20260505065803 71 172 2.0 7.0 0.00 0.00 0.00 85 1003.7
20260505065703 71 149 2.0 7.0 0.00 0.00 0.00 85 1003.6
20260505065602 71 176 3.0 7.0 0.00 0.00 0.00 85 1003.6
20260505065504 71 171 2.0 7.0 0.00 0.00 0.00 85 1003.7
20260505065402 71 162 2.0 6.0 0.00 0.00 0.00 85 1003.8
20260505065304 71 155 2.0 6.0 0.00 0.00 0.00 85 1003.8
20260505065203 71 161 2.0 6.0 0.00 0.00 0.00 85 1003.8
20260505065102 71 155 3.0 6.0 0.00 0.00 0.00 85 1003.8
20260505065004 71 183 4.0 6.0 0.00 0.00 0.00 85 1003.8
20260505064903 71 171 3.0 6.0 0.00 0.00 0.00 85 1003.8
20260505064803 71 134 3.0 6.0 0.00 0.00 0.00 85 1003.9
20260505064703 71 169 3.0 6.0 0.00 0.00 0.00 85 1003.9
20260505064602 71 140 2.0 6.0 0.00 0.00 0.00 85 1003.9
20260505064504 71 157 1.0 6.0 0.00 0.00 0.00 85 1003.9
20260505064402 71 176 1.0 6.0 0.00 0.00 0.00 85 1004.0
20260505064303 71 169 1.0 6.0 0.00 0.00 0.00 85 1003.9
20260505064204 71 192 2.0 6.0 0.00 0.00 0.00 85 1004.0
20260505064102 71 155 2.0 6.0 0.00 0.00 0.00 85 1004.0
20260505064004 71 134 3.0 6.0 0.00 0.00 0.00 85 1004.0
20260505063904 71 168 3.0 6.0 0.00 0.00 0.00 85 1003.9
20260505063803 71 202 4.0 6.0 0.00 0.00 0.00 85 1004.0
20260505063704 71 135 4.0 6.0 0.00 0.00 0.00 85 1004.0
20260505063603 71 159 3.0 5.0 0.00 0.00 0.00 85 1004.1
20260505063505 71 179 2.0 5.0 0.00 0.00 0.00 85 1004.0
20260505063403 71 157 3.0 5.0 0.00 0.00 0.00 85 1004.0
20260505063256 71 172 3.0 5.0 0.00 0.00 0.00 85 1004.0
20260505063155 71 147 4.0 5.0 0.00 0.00 0.00 85 1004.0
20260505063056 71 158 4.0 5.0 0.00 0.00 0.00 85 1004.0
20260505062952 71 140 3.0 5.0 0.00 0.00 0.00 85 1004.0
20260505062853 71 148 3.0 4.0 0.00 0.00 0.00 85 1004.0
20260505062749 71 144 3.0 4.0 0.00 0.00 0.00 85 1004.1
20260505062649 71 155 2.0 4.0 0.00 0.00 0.00 85 1004.1
20260505062536 71 157 2.0 5.0 0.00 0.00 0.00 84 1004.1
20260505062433 71 123 2.0 5.0 0.00 0.00 0.00 84 1004.1
20260505062330 71 178 2.0 5.0 0.00 0.00 0.00 84 1004.2
20260505062231 71 141 2.0 5.0 0.00 0.00 0.00 84 1004.2
20260505062132 71 130 2.0 5.0 0.00 0.00 0.00 84 1004.1
20260505062033 71 182 2.0 6.0 0.00 0.00 0.00 84 1004.1
20260505061933 71 165 3.0 6.0 0.00 0.00 0.00 84 1004.1
20260505061831 71 155 3.0 6.0 0.00 0.00 0.00 84 1004.2
20260505061733 71 157 2.0 6.0 0.00 0.00 0.00 84 1004.2
20260505061631 71 141 2.0 6.0 0.00 0.00 0.00 84 1004.2
20260505061533 71 141 2.0 7.0 0.00 0.00 0.00 84 1004.2
20260505061433 71 114 3.0 7.0 0.00 0.00 0.00 84 1004.3
20260505061333 71 151 3.0 7.0 0.00 0.00 0.00 84 1004.3
20260505061232 71 155 3.0 7.0 0.00 0.00 0.00 84 1004.2
20260505061130 71 128 3.0 7.0 0.00 0.00 0.00 84 1004.2
20260505061032 71 127 2.0 7.0 0.00 0.00 0.00 84 1004.3
20260505060930 71 157 2.0 7.0 0.00 0.00 0.00 84 1004.3
20260505060832 71 147 3.0 7.0 0.00 0.00 0.00 84 1004.5
20260505060732 71 151 4.0 7.0 0.00 0.00 0.00 84 1004.5
20260505060632 71 120 3.0 7.0 0.00 0.00 0.00 84 1004.5
20260505060532 71 169 3.0 6.0 0.00 0.00 0.00 84 1004.6
20260505060430 71 130 3.0 7.0 0.00 0.00 0.00 84 1004.6
20260505060331 71 179 3.0 7.0 0.00 0.00 0.00 84 1004.5
20260505060232 71 173 3.0 7.0 0.00 0.00 0.00 84 1004.5
20260505060130 71 154 3.0 7.0 0.00 0.00 0.00 84 1004.4
20260505060033 71 196 2.0 7.0 0.00 0.00 0.00 84 1004.5
20260505055930 71 154 2.0 7.0 0.00 0.00 0.00 84 1004.5
20260505055830 71 130 3.0 7.0 0.00 0.00 0.00 84 1004.4
20260505055730 71 152 4.0 7.0 0.00 0.00 0.00 84 1004.3
20260505055632 71 152 4.0 7.0 0.00 0.00 0.00 84 1004.3
20260505055531 71 111 4.0 7.0 0.00 0.00 0.00 84 1004.3
20260505055432 71 145 4.0 6.0 0.00 0.00 0.00 84 1004.2
20260505055332 71 148 3.0 6.0 0.00 0.00 0.00 84 1004.3
20260505055231 71 168 2.0 6.0 0.00 0.00 0.00 84 1004.3
20260505055132 71 141 2.0 6.0 0.00 0.00 0.00 84 1004.2
20260505055033 71 147 2.0 6.0 0.00 0.00 0.00 84 1004.3
20260505054916 71 141 2.0 6.0 0.00 0.00 0.00 84 1004.3
20260505054815 71 151 2.0 6.0 0.00 0.00 0.00 84 1004.3
20260505054710 71 141 2.0 6.0 0.00 0.00 0.00 84 1004.3
20260505054606 71 152 3.0 6.0 0.00 0.00 0.00 84 1004.3
20260505054504 71 197 3.0 6.0 0.00 0.00 0.00 83 1004.3
20260505054404 71 166 3.0 5.0 0.00 0.00 0.00 84 1004.3
20260505054302 71 157 3.0 5.0 0.00 0.00 0.00 83 1004.3
20260505054203 71 173 3.0 5.0 0.00 0.00 0.00 84 1004.3
20260505054103 71 144 2.0 5.0 0.00 0.00 0.00 84 1004.2
20260505054003 71 135 2.0 5.0 0.00 0.00 0.00 83 1004.2
20260505053902 71 149 2.0 5.0 0.00 0.00 0.00 83 1004.2
20260505053801 71 148 3.0 5.0 0.00 0.00 0.00 83 1004.3
20260505053702 71 165 2.0 5.0 0.00 0.00 0.00 83 1004.3
20260505053603 71 123 2.0 5.0 0.00 0.00 0.00 83 1004.3
20260505053502 71 166 3.0 5.0 0.00 0.00 0.00 83 1004.3
20260505053404 71 168 2.0 5.0 0.00 0.00 0.00 83 1004.3
20260505053302 71 172 2.0 5.0 0.00 0.00 0.00 83 1004.3
20260505053203 71 175 3.0 5.0 0.00 0.00 0.00 83 1004.3
20260505053102 71 147 2.0 5.0 0.00 0.00 0.00 83 1004.4
20260505053004 71 175 3.0 6.0 0.00 0.00 0.00 83 1004.4
20260505052902 71 161 3.0 6.0 0.00 0.00 0.00 83 1004.4
20260505052758 71 134 3.0 6.0 0.00 0.00 0.00 83 1004.5
20260505052648 71 164 3.0 6.0 0.00 0.00 0.00 83 1004.5
20260505052547 71 159 3.0 6.0 0.00 0.00 0.00 83 1004.5
20260505052445 71 204 3.0 7.0 0.00 0.00 0.00 83 1004.5
20260505052336 71 131 2.0 9.0 0.00 0.00 0.00 83 1004.6
20260505052233 71 138 2.0 9.0 0.00 0.00 0.00 83 1004.6
20260505052133 71 180 3.0 9.0 0.00 0.00 0.00 83 1004.7
20260505052033 71 151 4.0 9.0 0.00 0.00 0.00 83 1004.6
20260505051931 71 148 2.0 9.0 0.00 0.00 0.00 83 1004.6
20260505051828 71 159 2.0 9.0 0.00 0.00 0.00 82 1004.6
20260505051724 71 168 2.0 9.0 0.00 0.00 0.00 82 1004.7
20260505051617 71 169 4.0 9.0 0.00 0.00 0.00 82 1004.7
20260505051511 71 199 4.0 9.0 0.00 0.00 0.00 82 1004.7
20260505051403 71 159 2.0 7.0 0.00 0.00 0.00 82 1004.7
20260505051302 71 186 2.0 7.0 0.00 0.00 0.00 82 1004.7
20260505051202 71 164 2.0 7.0 0.00 0.00 0.00 83 1004.7
20260505051102 71 168 3.0 7.0 0.00 0.00 0.00 83 1004.7
20260505051004 71 144 3.0 7.0 0.00 0.00 0.00 82 1004.6
20260505050903 71 157 2.0 7.0 0.00 0.00 0.00 82 1004.7
20260505050803 71 152 2.0 11.0 0.00 0.00 0.00 82 1004.7
20260505050702 71 147 3.0 11.0 0.00 0.00 0.00 82 1004.7
20260505050601 71 118 3.0 11.0 0.00 0.00 0.00 82 1004.7
20260505050502 71 135 2.0 11.0 0.00 0.00 0.00 82 1004.7
20260505050402 71 162 2.0 11.0 0.00 0.00 0.00 82 1004.8
20260505050303 71 164 3.0 11.0 0.00 0.00 0.00 82 1004.9
20260505050202 71 152 3.0 11.0 0.00 0.00 0.00 82 1004.8
20260505041701 72 157 3.0 6.0 0.00 0.00 0.00 81 1004.8
20260505041602 72 172 3.0 6.0 0.00 0.00 0.00 81 1004.9
20260505041500 72 172 3.0 6.0 0.00 0.00 0.00 81 1004.9
20260505041400 72 161 2.0 7.0 0.00 0.00 0.00 81 1004.9
20260505041300 72 142 2.0 7.0 0.00 0.00 0.00 81 1004.9
20260505041200 72 154 2.0 7.0 0.00 0.00 0.00 81 1004.9
20260505041101 72 158 4.0 7.0 0.00 0.00 0.00 80 1004.8
20260505041002 72 140 4.0 7.0 0.00 0.00 0.00 81 1004.8
20260505040900 72 142 4.0 7.0 0.00 0.00 0.00 81 1004.7
20260505040800 72 124 4.0 10.0 0.00 0.00 0.00 81 1004.7
20260505040700 72 144 2.0 10.0 0.00 0.00 0.00 81 1004.7
20260505040601 72 141 4.0 10.0 0.00 0.00 0.00 80 1004.7
20260505040501 72 125 5.0 10.0 0.00 0.00 0.00 80 1004.7
20260505040400 72 161 4.0 10.0 0.00 0.00 0.00 80 1004.7
20260505040302 72 166 3.0 10.0 0.00 0.00 0.00 80 1004.7
20260505040201 72 192 3.0 10.0 0.00 0.00 0.00 80 1004.9
20260505040100 72 137 3.0 10.0 0.00 0.00 0.00 80 1004.8
20260505040001 72 138 4.0 10.0 0.00 0.00 0.00 80 1004.8
20260505035900 72 158 6.0 10.0 0.00 0.00 0.00 80 1004.8
20260505035801 72 202 4.0 10.0 0.00 0.00 0.00 80 1004.8
20260505035701 72 111 4.0 10.0 0.00 0.00 0.00 80 1004.9
20260505035601 72 164 5.0 10.0 0.00 0.00 0.00 80 1004.8
20260505035501 72 186 4.0 10.0 0.00 0.00 0.00 80 1005.0
20260505035359 72 183 4.0 10.0 0.00 0.00 0.00 80 1004.9
20260505035301 72 149 3.0 10.0 0.00 0.00 0.00 80 1004.9
20260505035159 72 169 4.0 10.0 0.00 0.00 0.00 80 1005.0
20260505035101 72 148 4.0 10.0 0.00 0.00 0.00 80 1004.9
20260505034959 72 128 6.0 10.0 0.00 0.00 0.00 80 1004.9
20260505034901 72 123 5.0 10.0 0.00 0.00 0.00 80 1004.9
20260505034801 72 155 4.0 7.0 0.00 0.00 0.00 80 1004.9
20260505034659 72 166 4.0 7.0 0.00 0.00 0.00 80 1004.9
20260505034600 72 204 4.0 7.0 0.00 0.00 0.00 80 1004.8
20260505034501 72 128 4.0 7.0 0.00 0.00 0.00 80 1004.9
20260505034400 72 141 3.0 7.0 0.00 0.00 0.00 80 1004.9
20260505034259 72 148 3.0 6.0 0.00 0.00 0.00 80 1004.9
20260505034201 72 154 4.0 6.0 0.00 0.00 0.00 80 1005.0
20260505034059 72 144 4.0 6.0 0.00 0.00 0.00 80 1004.9
20260505033959 72 147 4.0 6.0 0.00 0.00 0.00 80 1005.0
20260505033900 72 148 4.0 6.0 0.00 0.00 0.00 80 1005.1
20260505033759 72 124 4.0 6.0 0.00 0.00 0.00 80 1005.1
20260505033700 72 145 4.0 6.0 0.00 0.00 0.00 80 1005.2
20260505033601 72 164 4.0 6.0 0.00 0.00 0.00 80 1005.2
20260505033500 72 166 4.0 6.0 0.00 0.00 0.00 80 1005.2
20260505033402 72 152 4.0 6.0 0.00 0.00 0.00 80 1005.2
20260505033259 72 196 4.0 6.0 0.00 0.00 0.00 79 1005.2
20260505033200 72 144 3.0 6.0 0.00 0.00 0.00 79 1005.2
20260505033100 72 142 3.0 7.0 0.00 0.00 0.00 79 1005.0
20260505033001 72 147 3.0 7.0 0.00 0.00 0.00 79 1005.0
20260505032900 73 137 3.0 7.0 0.00 0.00 0.00 79 1005.0
20260505032801 73 178 3.0 7.0 0.00 0.00 0.00 79 1005.0
20260505032700 73 179 3.0 7.0 0.00 0.00 0.00 79 1005.0
20260505032601 73 162 4.0 7.0 0.00 0.00 0.00 79 1005.0
20260505032500 73 152 4.0 10.0 0.00 0.00 0.00 79 1005.0
20260505032400 73 188 4.0 10.0 0.00 0.00 0.00 79 1005.0
20260505032300 73 176 4.0 10.0 0.00 0.00 0.00 79 1005.0
20260505032200 73 151 5.0 10.0 0.00 0.00 0.00 79 1005.0
20260505032100 73 138 4.0 10.0 0.00 0.00 0.00 79 1005.0
20260505031959 73 148 5.0 12.0 0.00 0.00 0.00 79 1005.1
20260505031900 73 148 4.0 12.0 0.00 0.00 0.00 79 1005.0
20260505031759 73 144 4.0 12.0 0.00 0.00 0.00 79 1005.1
20260505031701 73 169 4.0 12.0 0.00 0.00 0.00 79 1005.1
20260505031558 73 159 4.0 12.0 0.00 0.00 0.00 79 1005.1
20260505031500 73 175 3.0 12.0 0.00 0.00 0.00 79 1005.1
20260505031359 73 117 3.0 12.0 0.00 0.00 0.00 79 1005.1
20260505031301 73 137 3.0 12.0 0.00 0.00 0.00 79 1005.1
20260505031200 73 173 6.0 12.0 0.00 0.00 0.00 79 1005.0
20260505031059 73 154 6.0 12.0 0.00 0.00 0.00 79 1005.1
20260505030958 73 193 5.0 12.0 0.00 0.00 0.00 79 1004.9
20260505030859 73 171 5.0 12.0 0.00 0.00 0.00 79 1004.9
20260505030758 73 140 3.0 12.0 0.00 0.00 0.00 79 1004.9
20260505030700 73 141 5.0 12.0 0.00 0.00 0.00 79 1004.9
20260505030600 73 154 7.0 12.0 0.00 0.00 0.00 79 1004.9
20260505030458 73 169 5.0 10.0 0.00 0.00 0.00 79 1005.0
20260505030358 73 137 4.0 9.0 0.00 0.00 0.00 79 1005.0
20260505030258 73 149 4.0 9.0 0.00 0.00 0.00 78 1005.0
20260505030158 73 155 4.0 9.0 0.00 0.00 0.00 78 1004.9
20260505030059 73 164 5.0 9.0 0.00 0.00 0.00 78 1004.9
20260505030000 73 145 4.0 9.0 0.00 0.00 0.00 78 1005.0
20260505025859 73 148 3.0 9.0 0.00 0.00 0.00 78 1005.0
20260505025759 73 161 4.0 9.0 0.00 0.00 0.00 78 1004.9
20260505025658 73 171 5.0 9.0 0.00 0.00 0.00 78 1005.0
20260505025559 73 161 5.0 9.0 0.00 0.00 0.00 78 1004.9
20260505025458 73 176 5.0 7.0 0.00 0.00 0.00 78 1005.0
20260505025358 73 155 3.0 7.0 0.00 0.00 0.00 78 1005.0
20260505025259 73 172 3.0 9.0 0.00 0.00 0.00 78 1005.0
20260505025158 73 148 2.0 9.0 0.00 0.00 0.00 78 1005.0
20260505025059 73 130 3.0 9.0 0.00 0.00 0.00 78 1005.0
20260505024958 73 159 4.0 9.0 0.00 0.00 0.00 78 1004.9
20260505024859 73 145 5.0 9.0 0.00 0.00 0.00 78 1004.8
20260505024758 73 166 4.0 9.0 0.00 0.00 0.00 78 1004.9
20260505024659 73 128 4.0 9.0 0.00 0.00 0.00 78 1004.9
20260505024558 74 124 4.0 9.0 0.00 0.00 0.00 78 1004.8
20260505024501 74 137 4.0 9.0 0.00 0.00 0.00 78 1004.9
20260505024358 74 171 4.0 9.0 0.00 0.00 0.00 78 1004.8
20260505024259 74 124 3.0 9.0 0.00 0.00 0.00 77 1004.9
20260505024159 74 145 5.0 9.0 0.00 0.00 0.00 77 1004.8
20260505024058 74 168 6.0 9.0 0.00 0.00 0.00 77 1004.9
20260505024001 74 161 6.0 9.0 0.00 0.00 0.00 77 1004.9
20260505023858 74 154 5.0 9.0 0.00 0.00 0.00 77 1005.0
20260505023759 74 144 4.0 9.0 0.00 0.00 0.00 77 1005.0
20260505023658 74 159 5.0 9.0 0.00 0.00 0.00 77 1005.0
20260505023559 74 114 6.0 9.0 0.00 0.00 0.00 77 1005.1
20260505023459 74 133 4.0 9.0 0.00 0.00 0.00 77 1005.1
20260505023357 74 196 4.0 9.0 0.00 0.00 0.00 77 1005.1
20260505023300 74 137 4.0 9.0 0.00 0.00 0.00 77 1005.1
20260505023158 74 161 3.0 9.0 0.00 0.00 0.00 77 1005.1
20260505023058 74 159 3.0 9.0 0.00 0.00 0.00 77 1005.0
20260505022957 74 161 4.0 9.0 0.00 0.00 0.00 77 1005.1
20260505022857 74 141 4.0 9.0 0.00 0.00 0.00 77 1005.1
20260505022758 74 154 4.0 9.0 0.00 0.00 0.00 77 1005.0
20260505022657 74 197 5.0 10.0 0.00 0.00 0.00 77 1005.0
20260505022558 74 165 5.0 10.0 0.00 0.00 0.00 77 1005.0
20260505022458 74 149 5.0 10.0 0.00 0.00 0.00 77 1005.0
20260505022358 74 140 6.0 10.0 0.00 0.00 0.00 77 1005.0
20260505022258 74 175 6.0 10.0 0.00 0.00 0.00 77 1005.0
20260505022157 74 169 4.0 10.0 0.00 0.00 0.00 77 1005.0
20260505022059 74 125 3.0 10.0 0.00 0.00 0.00 77 1004.9
20260505021958 74 165 4.0 10.0 0.00 0.00 0.00 77 1004.9
20260505021858 74 118 5.0 10.0 0.00 0.00 0.00 77 1004.9
20260505021757 74 117 5.0 10.0 0.00 0.00 0.00 77 1004.9
20260505021657 74 223 5.0 10.0 0.00 0.00 0.00 77 1004.8
20260505021558 74 125 4.0 10.0 0.00 0.00 0.00 77 1004.8
20260505021459 74 193 3.0 10.0 0.00 0.00 0.00 77 1004.7
20260505021357 74 190 3.0 10.0 0.00 0.00 0.00 77 1004.8
20260505021257 74 157 3.0 10.0 0.00 0.00 0.00 77 1004.8
20260505021159 74 128 4.0 10.0 0.00 0.00 0.00 77 1004.7
20260505021058 74 173 4.0 10.0 0.00 0.00 0.00 77 1004.7
20260505020959 74 182 4.0 9.0 0.00 0.00 0.00 77 1004.6
20260505020857 74 152 4.0 9.0 0.00 0.00 0.00 77 1004.7
20260505020758 74 128 4.0 9.0 0.00 0.00 0.00 77 1004.7
20260505020658 74 131 4.0 9.0 0.00 0.00 0.00 76 1004.8
20260505020557 74 147 4.0 9.0 0.00 0.00 0.00 76 1004.7
20260505020458 74 144 2.0 9.0 0.00 0.00 0.00 76 1004.7
20260505020359 74 151 3.0 9.0 0.00 0.00 0.00 76 1004.6
20260505020259 74 107 3.0 9.0 0.00 0.00 0.00 76 1004.7
20260505020157 74 125 4.0 9.0 0.00 0.00 0.00 76 1004.7
20260505020057 74 138 5.0 10.0 0.00 0.00 0.00 76 1004.7
20260505015957 74 102 4.0 10.0 0.00 0.00 0.00 76 1004.6
20260505015858 74 152 4.0 10.0 0.00 0.00 0.00 76 1004.6
20260505015759 74 164 5.0 10.0 0.00 0.00 0.00 76 1004.6
20260505015657 74 142 5.0 10.0 0.00 0.00 0.00 76 1004.6
20260505015558 74 131 4.0 10.0 0.00 0.00 0.00 76 1004.6
20260505015457 74 149 5.0 10.0 0.00 0.00 0.00 76 1004.6
20260505015357 74 175 5.0 10.0 0.00 0.00 0.00 76 1004.5
20260505015259 74 140 5.0 10.0 0.00 0.00 0.00 76 1004.6
20260505015157 75 144 4.0 10.0 0.00 0.00 0.00 76 1004.6
20260505015057 75 135 4.0 7.0 0.00 0.00 0.00 76 1004.7
20260505014958 75 149 3.0 9.0 0.00 0.00 0.00 76 1004.7
20260505014857 75 152 3.0 9.0 0.00 0.00 0.00 76 1004.7
20260505014758 75 117 4.0 9.0 0.00 0.00 0.00 76 1004.7
20260505014656 75 162 4.0 9.0 0.00 0.00 0.00 76 1004.7
20260505014558 75 145 3.0 9.0 0.00 0.00 0.00 76 1004.7
20260505014456 75 207 3.0 9.0 0.00 0.00 0.00 76 1004.6
20260505014358 75 151 3.0 10.0 0.00 0.00 0.00 75 1004.6
20260505014257 75 182 3.0 10.0 0.00 0.00 0.00 75 1004.7
20260505014156 75 175 4.0 10.0 0.00 0.00 0.00 75 1004.7
20260505014056 75 145 5.0 10.0 0.00 0.00 0.00 75 1004.7
20260505013957 75 147 4.0 10.0 0.00 0.00 0.00 75 1004.6
20260505013857 75 161 4.0 10.0 0.00 0.00 0.00 75 1004.7
20260505013756 75 171 4.0 10.0 0.00 0.00 0.00 75 1004.7
20260505013658 75 152 4.0 10.0 0.00 0.00 0.00 75 1004.7
20260505013558 75 171 4.0 10.0 0.00 0.00 0.00 75 1004.6
20260505013457 75 147 5.0 10.0 0.00 0.00 0.00 75 1004.5
20260505013358 75 171 6.0 10.0 0.00 0.00 0.00 75 1004.5
20260505013252 75 193 6.0 10.0 0.00 0.00 0.00 75 1004.6
20260505013150 75 149 6.0 10.0 0.00 0.00 0.00 75 1004.5
20260505013050 75 103 5.0 10.0 0.00 0.00 0.00 75 1004.4
20260505012932 75 116 5.0 10.0 0.00 0.00 0.00 75 1004.4
20260505012831 75 127 5.0 10.0 0.00 0.00 0.00 75 1004.3
20260505012734 75 161 4.0 12.0 0.00 0.00 0.00 74 1004.4
20260505012631 75 155 6.0 12.0 0.00 0.00 0.00 74 1004.3
20260505012532 75 171 5.0 12.0 0.00 0.00 0.00 74 1004.3
20260505012431 75 151 4.0 12.0 0.00 0.00 0.00 74 1004.3
20260505012332 75 148 4.0 12.0 0.00 0.00 0.00 74 1004.2
20260505012231 75 148 5.0 12.0 0.00 0.00 0.00 74 1004.3
20260505012133 75 144 4.0 12.0 0.00 0.00 0.00 74 1004.3
20260505012032 75 161 4.0 12.0 0.00 0.00 0.00 74 1004.3
20260505011933 75 137 5.0 12.0 0.00 0.00 0.00 74 1004.3
20260505011831 75 145 5.0 12.0 0.00 0.00 0.00 74 1004.3
20260505011730 75 178 5.0 11.0 0.00 0.00 0.00 74 1004.3
20260505011629 75 157 6.0 11.0 0.00 0.00 0.00 74 1004.3
20260505011525 75 154 4.0 11.0 0.00 0.00 0.00 74 1004.3
20260505011422 75 133 5.0 11.0 0.00 0.00 0.00 74 1004.3
20260505011320 76 147 5.0 11.0 0.00 0.00 0.00 74 1004.3
20260505011219 76 278 5.0 11.0 0.00 0.00 0.00 74 1004.2
20260505011116 76 154 6.0 11.0 0.00 0.00 0.00 73 1004.2
20260505011015 76 140 5.0 10.0 0.00 0.00 0.00 73 1004.2
20260505010912 76 144 5.0 15.0 0.00 0.00 0.00 73 1004.2
20260505010812 76 164 5.0 15.0 0.00 0.00 0.00 73 1004.2
20260505010708 76 199 4.0 15.0 0.00 0.00 0.00 73 1004.2
20260505010603 76 203 4.0 15.0 0.00 0.00 0.00 73 1004.2
20260505010505 76 151 4.0 15.0 0.00 0.00 0.00 73 1004.3
20260505010403 76 169 5.0 15.0 0.00 0.00 0.00 73 1004.3
20260505010303 76 199 6.0 15.0 0.00 0.00 0.00 73 1004.4
20260505010204 76 169 6.0 15.0 0.00 0.00 0.00 73 1004.3
20260505010004 76 116 6.0 15.0 0.00 0.00 0.00 73 1004.3
20260505005904 76 145 7.0 15.0 0.00 0.00 0.00 73 1004.3
20260505005803 76 148 8.0 15.0 0.00 0.00 0.00 73 1004.4
20260505005703 76 159 5.0 9.0 0.00 0.00 0.00 74 1004.3
20260505005603 76 135 5.0 9.0 0.00 0.00 0.00 74 1004.3
20260505005504 76 158 5.0 9.0 0.00 0.00 0.00 74 1004.4
20260505005403 76 113 3.0 10.0 0.00 0.00 0.00 74 1004.4
20260505005304 76 166 3.0 10.0 0.00 0.00 0.00 74 1004.3
20260505005203 76 138 3.0 10.0 0.00 0.00 0.00 74 1004.3
20260505005102 76 141 3.0 10.0 0.00 0.00 0.00 74 1004.2
20260505005005 76 166 3.0 10.0 0.00 0.00 0.00 74 1004.3
20260505004904 76 162 3.0 10.0 0.00 0.00 0.00 73 1004.3
20260505004803 76 159 3.0 10.0 0.00 0.00 0.00 73 1004.2
20260505004703 76 171 4.0 10.0 0.00 0.00 0.00 73 1004.2
20260505004602 76 169 5.0 10.0 0.00 0.00 0.00 73 1004.1
20260505004505 76 169 5.0 10.0 0.00 0.00 0.00 73 1004.0
20260505004404 76 162 4.0 9.0 0.00 0.00 0.00 73 1004.1
20260505004304 76 158 4.0 9.0 0.00 0.00 0.00 73 1004.2
20260505004203 76 123 5.0 10.0 0.00 0.00 0.00 73 1004.2
20260505004103 76 142 5.0 11.0 0.00 0.00 0.00 73 1004.2
20260505004006 76 116 5.0 14.0 0.00 0.00 0.00 73 1004.2
20260505003902 76 144 5.0 14.0 0.00 0.00 0.00 73 1004.2
20260505003804 76 179 4.0 14.0 0.00 0.00 0.00 73 1004.3
20260505003703 76 152 5.0 14.0 0.00 0.00 0.00 73 1004.2
20260505003604 76 100 6.0 14.0 0.00 0.00 0.00 73 1004.2
20260505003504 76 158 5.0 14.0 0.00 0.00 0.00 73 1004.3
20260505003404 76 104 5.0 14.0 0.00 0.00 0.00 73 1004.3
20260505003303 77 144 7.0 14.0 0.00 0.00 0.00 73 1004.2
20260505003202 77 172 8.0 14.0 0.00 0.00 0.00 73 1004.2
20260505003103 77 117 7.0 14.0 0.00 0.00 0.00 73 1004.2
20260505003004 77 113 4.0 13.0 0.00 0.00 0.00 73 1004.2
20260505002903 77 147 5.0 13.0 0.00 0.00 0.00 72 1004.3
20260505002803 77 124 4.0 13.0 0.00 0.00 0.00 72 1004.2
20260505002702 77 117 4.0 13.0 0.00 0.00 0.00 72 1004.3
20260505002602 77 124 6.0 13.0 0.00 0.00 0.00 72 1004.2
20260505002503 77 120 6.0 13.0 0.00 0.00 0.00 72 1004.1
20260505002402 77 116 4.0 11.0 0.00 0.00 0.00 72 1004.2
20260505002304 77 140 5.0 11.0 0.00 0.00 0.00 72 1004.2
20260505002204 77 116 4.0 11.0 0.00 0.00 0.00 72 1004.2
20260505002104 77 164 5.0 11.0 0.00 0.00 0.00 72 1004.1
20260505002002 77 134 6.0 11.0 0.00 0.00 0.00 72 1004.2
20260505001902 77 113 6.0 11.0 0.00 0.00 0.00 72 1004.2
20260505001803 77 148 4.0 10.0 0.00 0.00 0.00 72 1004.2
20260505001704 77 155 4.0 7.0 0.00 0.00 0.00 72 1004.2
20260505001602 77 137 4.0 7.0 0.00 0.00 0.00 72 1004.2
20260505001504 77 141 4.0 7.0 0.00 0.00 0.00 72 1004.1
20260505001402 77 147 4.0 7.0 0.00 0.00 0.00 72 1004.1
20260505001303 77 138 4.0 7.0 0.00 0.00 0.00 72 1004.2
20260505001203 77 157 3.0 10.0 0.00 0.00 0.00 72 1004.1
20260505001103 77 128 4.0 10.0 0.00 0.00 0.00 72 1004.2
20260505001005 77 138 4.0 10.0 0.00 0.00 0.00 72 1004.3
20260505000902 77 145 5.0 10.0 0.00 0.00 0.00 72 1004.2
20260505000802 77 125 5.0 10.0 0.00 0.00 0.00 72 1004.2
20260505000705 77 138 4.0 10.0 0.00 0.00 0.00 72 1004.2
20260505000603 77 127 3.0 10.0 0.00 0.00 0.00 72 1004.2
20260505000504 78 147 3.0 10.0 0.00 0.00 0.00 71 1004.2
20260505000405 78 158 5.0 10.0 0.00 0.00 0.00 71 1004.2
20260505000303 78 148 5.0 10.0 0.00 0.00 0.00 71 1004.2
20260505000204 78 92 5.0 10.0 0.00 0.00 0.00 71 1004.3
20260505000103 78 130 5.0 12.0 0.00 0.00 0.00 71 1004.3
20260505000003 78 137 4.0 12.0 0.00 0.00 0.00 71 1004.3
20260504235902 78 117 4.0 12.0 0.00 0.00 0.00 71 1004.3
20260504235803 78 147 4.0 12.0 0.00 0.00 0.00 71 1004.3
20260504235703 78 144 4.0 12.0 0.00 0.00 0.00 71 1004.2
20260504235602 78 137 5.0 12.0 0.00 0.00 0.00 71 1004.3
20260504235503 78 158 5.0 12.0 0.00 0.00 0.00 71 1004.3
20260504235404 78 189 6.0 12.0 0.00 0.00 0.00 71 1004.3
20260504235304 78 140 7.0 12.0 0.00 0.00 0.00 71 1004.3
20260504235203 78 131 6.0 12.0 0.00 0.00 0.00 71 1004.2
20260504235103 78 142 4.0 10.0 0.00 0.00 0.00 71 1004.2
20260504235004 78 102 5.0 10.0 0.00 0.00 0.00 71 1004.2
20260504234902 78 197 5.0 10.0 0.00 0.00 0.00 71 1004.2
20260504234803 78 109 4.0 10.0 0.00 0.00 0.00 71 1004.3
20260504234703 77 137 3.0 10.0 0.00 0.00 0.00 71 1004.3
20260504234603 78 140 3.0 10.0 0.00 0.00 0.00 71 1004.2
20260504234503 77 148 4.0 10.0 0.00 0.00 0.00 71 1004.3
20260504234404 78 128 6.0 10.0 0.00 0.00 0.00 71 1004.3
20260504234304 78 151 7.0 10.0 0.00 0.00 0.00 71 1004.4
20260504234203 78 117 6.0 10.0 0.00 0.00 0.00 71 1004.3
20260504234102 78 118 6.0 10.0 0.00 0.00 0.00 71 1004.4
20260504234002 78 137 6.0 9.0 0.00 0.00 0.00 71 1004.5
20260504233903 78 111 4.0 9.0 0.00 0.00 0.00 71 1004.5
20260504233802 78 197 4.0 11.0 0.00 0.00 0.00 71 1004.5
20260504233704 78 128 5.0 11.0 0.00 0.00 0.00 71 1004.5
20260504233603 78 127 5.0 13.0 0.00 0.00 0.00 71 1004.4
20260504233502 78 130 3.0 13.0 0.00 0.00 0.00 70 1004.5
20260504233402 78 130 2.0 13.0 0.00 0.00 0.00 70 1004.5
20260504233303 78 145 2.0 13.0 0.00 0.00 0.00 70 1004.5
20260504233203 78 134 4.0 13.0 0.00 0.00 0.00 70 1004.6
20260504233104 78 166 4.0 13.0 0.00 0.00 0.00 70 1004.6
20260504233005 78 169 5.0 13.0 0.00 0.00 0.00 69 1004.6
20260504232903 78 130 5.0 13.0 0.00 0.00 0.00 69 1004.5
20260504232803 78 140 6.0 13.0 0.00 0.00 0.00 69 1004.6
20260504232702 78 130 5.0 13.0 0.00 0.00 0.00 69 1004.6
20260504232603 78 114 3.0 10.0 0.00 0.00 0.00 69 1004.5
20260504232502 78 164 3.0 10.0 0.00 0.00 0.00 69 1004.6
20260504232402 78 159 4.0 10.0 0.00 0.00 0.00 69 1004.6
20260504232303 78 190 4.0 10.0 0.00 0.00 0.00 69 1004.6
20260504232202 78 144 4.0 10.0 0.00 0.00 0.00 69 1004.6
20260504232103 78 138 5.0 10.0 0.00 0.00 0.00 69 1004.7
20260504232003 78 155 6.0 10.0 0.00 0.00 0.00 69 1004.8
20260504231904 78 157 5.0 9.0 0.00 0.00 0.00 69 1004.7
20260504231803 78 142 4.0 9.0 0.00 0.00 0.00 69 1004.8
20260504231702 78 154 5.0 10.0 0.00 0.00 0.00 69 1004.8
20260504231603 78 127 5.0 10.0 0.00 0.00 0.00 69 1004.7
20260504231504 78 183 5.0 10.0 0.00 0.00 0.00 69 1004.8
20260504231403 78 188 4.0 10.0 0.00 0.00 0.00 68 1004.8
20260504231305 78 202 4.0 10.0 0.00 0.00 0.00 68 1004.7
20260504231202 78 176 4.0 10.0 0.00 0.00 0.00 68 1004.8
20260504231104 78 172 3.0 10.0 0.00 0.00 0.00 69 1004.8
20260504231004 78 120 3.0 10.0 0.00 0.00 0.00 68 1004.6
20260504230904 78 178 4.0 10.0 0.00 0.00 0.00 68 1004.7
20260504230802 78 185 5.0 12.0 0.00 0.00 0.00 68 1004.7
20260504230703 78 206 5.0 12.0 0.00 0.00 0.00 68 1004.7
20260504230603 78 172 4.0 12.0 0.00 0.00 0.00 68 1004.8
20260504230503 78 124 4.0 12.0 0.00 0.00 0.00 68 1004.9
20260504230402 78 144 4.0 12.0 0.00 0.00 0.00 68 1004.8
20260504230304 79 151 4.0 12.0 0.00 0.00 0.00 68 1004.9
20260504230203 78 130 4.0 12.0 0.00 0.00 0.00 68 1004.8
20260504230104 78 154 5.0 12.0 0.00 0.00 0.00 68 1004.8
20260504230005 79 125 7.0 12.0 0.00 0.00 0.00 68 1004.8
20260504225902 79 140 7.0 12.0 0.00 0.00 0.00 68 1004.7
20260504225802 79 141 6.0 11.0 0.00 0.00 0.00 68 1004.9
20260504225702 79 148 4.0 11.0 0.00 0.00 0.00 68 1004.8
20260504225604 79 134 4.0 11.0 0.00 0.00 0.00 68 1004.7
20260504225502 79 118 4.0 11.0 0.00 0.00 0.00 68 1004.8
20260504225402 79 145 5.0 11.0 0.00 0.00 0.00 68 1004.8
20260504225304 79 148 5.0 11.0 0.00 0.00 0.00 68 1004.9
20260504225203 79 168 5.0 11.0 0.00 0.00 0.00 68 1004.8
20260504225103 79 155 5.0 11.0 0.00 0.00 0.00 68 1004.8
20260504225004 79 183 4.0 10.0 0.00 0.00 0.00 67 1004.8
20260504224903 79 195 5.0 10.0 0.00 0.00 0.00 67 1004.8
20260504224803 79 173 4.0 10.0 0.00 0.00 0.00 67 1004.9
20260504224704 79 166 4.0 9.0 0.00 0.00 0.00 67 1004.9
20260504224602 79 183 4.0 9.0 0.00 0.00 0.00 67 1004.8
20260504224504 79 148 4.0 9.0 0.00 0.00 0.00 67 1004.9
20260504224404 79 164 5.0 9.0 0.00 0.00 0.00 67 1004.9
20260504224303 79 192 5.0 9.0 0.00 0.00 0.00 67 1004.9
20260504224203 79 179 4.0 9.0 0.00 0.00 0.00 67 1004.9
20260504224104 79 159 5.0 9.0 0.00 0.00 0.00 67 1004.9
20260504224004 79 147 4.0 10.0 0.00 0.00 0.00 67 1005.0
20260504223904 79 140 4.0 12.0 0.00 0.00 0.00 67 1004.9
20260504223803 79 193 4.0 12.0 0.00 0.00 0.00 67 1004.9
20260504223704 79 189 4.0 12.0 0.00 0.00 0.00 67 1004.9
20260504223603 79 144 5.0 12.0 0.00 0.00 0.00 66 1004.9
20260504223504 79 178 5.0 12.0 0.00 0.00 0.00 66 1004.8
20260504223403 79 178 5.0 12.0 0.00 0.00 0.00 66 1005.0
20260504223302 79 161 5.0 12.0 0.00 0.00 0.00 66 1004.9
20260504223203 79 195 5.0 12.0 0.00 0.00 0.00 67 1004.9
20260504223103 79 155 7.0 12.0 0.00 0.00 0.00 67 1004.9
20260504223004 79 110 7.0 11.0 0.00 0.00 0.00 67 1004.9
20260504222902 79 100 4.0 11.0 0.00 0.00 0.00 66 1004.9
20260504222803 79 154 4.0 11.0 0.00 0.00 0.00 66 1005.0
20260504222703 79 190 4.0 11.0 0.00 0.00 0.00 66 1004.9
20260504222603 79 169 4.0 11.0 0.00 0.00 0.00 66 1005.0
20260504222505 79 190 3.0 11.0 0.00 0.00 0.00 66 1005.0
20260504222403 79 176 4.0 11.0 0.00 0.00 0.00 66 1004.9
20260504222304 79 148 3.0 11.0 0.00 0.00 0.00 67 1005.0
20260504222203 79 171 3.0 11.0 0.00 0.00 0.00 67 1005.0
20260504222104 79 189 5.0 11.0 0.00 0.00 0.00 66 1005.0
20260504222003 79 130 6.0 11.0 0.00 0.00 0.00 66 1005.0
20260504221904 79 168 4.0 11.0 0.00 0.00 0.00 67 1005.1
20260504221802 79 114 2.0 7.0 0.00 0.00 0.00 67 1005.1
20260504221702 79 155 2.0 10.0 0.00 0.00 0.00 67 1005.1
20260504221603 79 164 3.0 10.0 0.00 0.00 0.00 67 1005.1
20260504221504 79 180 3.0 10.0 0.00 0.00 0.00 67 1005.2
20260504221402 79 131 3.0 10.0 0.00 0.00 0.00 66 1005.2
20260504221304 79 154 4.0 10.0 0.00 0.00 0.00 66 1005.2
20260504221202 79 189 6.0 10.0 0.00 0.00 0.00 66 1005.2
20260504221103 79 212 4.0 10.0 0.00 0.00 0.00 67 1005.1
20260504221003 79 188 3.0 10.0 0.00 0.00 0.00 67 1005.2
20260504220902 79 147 4.0 10.0 0.00 0.00 0.00 67 1005.2
20260504220804 79 158 5.0 10.0 0.00 0.00 0.00 66 1005.3
20260504220703 79 185 4.0 9.0 0.00 0.00 0.00 67 1005.2
20260504220603 79 224 4.0 9.0 0.00 0.00 0.00 67 1005.2
20260504220502 79 142 4.0 9.0 0.00 0.00 0.00 67 1005.2
20260504220402 79 165 3.0 9.0 0.00 0.00 0.00 67 1005.2
20260504220304 79 145 4.0 10.0 0.00 0.00 0.00 67 1005.2
20260504220203 79 144 4.0 10.0 0.00 0.00 0.00 67 1005.1
20260504220105 79 148 5.0 10.0 0.00 0.00 0.00 67 1005.3
20260504220003 79 140 4.0 10.0 0.00 0.00 0.00 67 1005.2
20260504215902 79 141 4.0 10.0 0.00 0.00 0.00 67 1005.3
20260504215802 79 178 4.0 10.0 0.00 0.00 0.00 67 1005.3
20260504215702 79 186 4.0 10.0 0.00 0.00 0.00 66 1005.3
20260504215602 79 162 5.0 10.0 0.00 0.00 0.00 66 1005.3
20260504215503 79 171 6.0 11.0 0.00 0.00 0.00 66 1005.3
20260504215402 79 176 4.0 11.0 0.00 0.00 0.00 66 1005.4
20260504215304 79 148 4.0 11.0 0.00 0.00 0.00 66 1005.4
20260504215202 79 169 5.0 11.0 0.00 0.00 0.00 66 1005.4
20260504215104 79 203 4.0 11.0 0.00 0.00 0.00 66 1005.5
20260504215003 79 178 4.0 11.0 0.00 0.00 0.00 66 1005.5
20260504214903 79 116 4.0 11.0 0.00 0.00 0.00 65 1005.5
20260504214804 79 199 5.0 11.0 0.00 0.00 0.00 65 1005.5
20260504214704 79 162 5.0 11.0 0.00 0.00 0.00 65 1005.5
20260504214603 79 157 4.0 11.0 0.00 0.00 0.00 65 1005.5
20260504214504 80 154 4.0 9.0 0.00 0.00 0.00 65 1005.5
20260504214404 79 162 4.0 9.0 0.00 0.00 0.00 65 1005.5
20260504214302 80 176 4.0 9.0 0.00 0.00 0.00 65 1005.5
20260504214203 80 183 5.0 9.0 0.00 0.00 0.00 65 1005.5
20260504214102 80 179 3.0 9.0 0.00 0.00 0.00 65 1005.5
20260504214006 80 171 3.0 10.0 0.00 0.00 0.00 65 1005.5
20260504213902 80 159 3.0 10.0 0.00 0.00 0.00 65 1005.6
20260504213803 80 199 5.0 10.0 0.00 0.00 0.00 65 1005.5
20260504213703 80 164 6.0 10.0 0.00 0.00 0.00 64 1005.6
20260504213603 80 200 4.0 10.0 0.00 0.00 0.00 64 1005.5
20260504213503 80 200 4.0 10.0 0.00 0.00 0.00 64 1005.6
20260504213403 80 200 4.0 10.0 0.00 0.00 0.00 64 1005.6
20260504213303 80 200 4.0 10.0 0.00 0.00 0.00 64 1005.7
20260504213204 80 200 4.0 10.0 0.00 0.00 0.00 64 1005.7
20260504213102 80 195 4.0 10.0 0.00 0.00 0.00 64 1005.7
20260504213004 80 168 2.0 9.0 0.00 0.00 0.00 64 1005.7
20260504212903 80 183 3.0 9.0 0.00 0.00 0.00 65 1005.6
20260504212802 80 141 3.0 9.0 0.00 0.00 0.00 65 1005.6
20260504212703 80 175 2.0 9.0 0.00 0.00 0.00 65 1005.7
20260504212603 80 206 3.0 9.0 0.00 0.00 0.00 65 1005.7
20260504212459 80 213 4.0 9.0 0.00 0.00 0.00 64 1005.7
20260504212354 80 106 4.0 9.0 0.00 0.00 0.00 64 1005.7
20260504212252 81 238 4.0 9.0 0.00 0.00 0.00 64 1005.7
20260504212151 81 162 3.0 7.0 0.00 0.00 0.00 64 1005.7
20260504212051 81 155 2.0 7.0 0.00 0.00 0.00 64 1005.7
20260504211951 81 152 3.0 7.0 0.00 0.00 0.00 64 1005.7
20260504211852 81 158 3.0 7.0 0.00 0.00 0.00 64 1005.8
20260504211752 81 193 3.0 9.0 0.00 0.00 0.00 63 1005.7
20260504211652 81 182 3.0 9.0 0.00 0.00 0.00 64 1005.7
20260504211550 81 172 4.0 9.0 0.00 0.00 0.00 63 1005.7
20260504211452 81 162 3.0 9.0 0.00 0.00 0.00 63 1005.7
20260504211352 80 137 3.0 9.0 0.00 0.00 0.00 64 1005.8
20260504211252 80 180 5.0 9.0 0.00 0.00 0.00 63 1005.8
20260504211152 80 200 4.0 9.0 0.00 0.00 0.00 63 1005.8
20260504211050 80 202 4.0 9.0 0.00 0.00 0.00 63 1005.9
20260504210953 81 161 4.0 9.0 0.00 0.00 0.00 63 1005.9
20260504210850 81 144 4.0 10.0 0.00 0.00 0.00 63 1006.0
20260504210750 81 164 3.0 10.0 0.00 0.00 0.00 64 1005.8
20260504210651 81 131 3.0 10.0 0.00 0.00 0.00 64 1005.9
20260504210551 81 173 2.0 10.0 0.00 0.00 0.00 63 1005.9
20260504210451 81 176 2.0 10.0 0.00 0.00 0.00 62 1005.9
20260504210352 81 196 4.0 10.0 0.00 0.00 0.00 62 1005.8
20260504210253 81 131 4.0 10.0 0.00 0.00 0.00 62 1005.9
20260504210152 81 155 5.0 10.0 0.00 0.00 0.00 62 1005.9
20260504210050 81 128 5.0 10.0 0.00 0.00 0.00 63 1005.8
20260504205952 80 118 4.0 10.0 0.00 0.00 0.00 63 1005.8
20260504205852 80 154 4.0 9.0 0.00 0.00 0.00 63 1005.8
20260504205753 80 111 4.0 9.0 0.00 0.00 0.00 63 1005.8
20260504205652 80 155 4.0 9.0 0.00 0.00 0.00 63 1005.9
20260504205550 80 190 4.0 9.0 0.00 0.00 0.00 63 1005.9
20260504205453 80 197 4.0 9.0 0.00 0.00 0.00 63 1005.9
20260504205350 80 171 4.0 7.0 0.00 0.00 0.00 62 1005.9
20260504205252 80 173 5.0 9.0 0.00 0.00 0.00 62 1005.9
20260504205152 80 168 4.0 9.0 0.00 0.00 0.00 62 1005.9
20260504205050 81 148 4.0 9.0 0.00 0.00 0.00 62 1005.9
20260504204951 81 155 5.0 9.0 0.00 0.00 0.00 62 1006.0
20260504204851 81 154 4.0 9.0 0.00 0.00 0.00 61 1006.0
20260504204751 81 154 3.0 10.0 0.00 0.00 0.00 61 1006.0
20260504204650 81 168 3.0 10.0 0.00 0.00 0.00 61 1006.1
20260504204549 81 168 5.0 10.0 0.00 0.00 0.00 62 1006.1
20260504204451 81 138 5.0 10.0 0.00 0.00 0.00 62 1006.2
20260504204352 81 180 3.0 10.0 0.00 0.00 0.00 62 1006.1
20260504204249 81 189 4.0 10.0 0.00 0.00 0.00 62 1006.1
20260504204150 81 144 5.0 10.0 0.00 0.00 0.00 61 1006.2
20260504204052 81 110 5.0 10.0 0.00 0.00 0.00 61 1006.2
20260504203951 81 138 5.0 10.0 0.00 0.00 0.00 62 1006.2
20260504203851 81 134 5.0 10.0 0.00 0.00 0.00 62 1006.2
20260504203750 81 124 4.0 6.0 0.00 0.00 0.00 62 1006.2
20260504203651 81 144 3.0 6.0 0.00 0.00 0.00 62 1006.3
20260504203551 81 164 3.0 6.0 0.00 0.00 0.00 62 1006.3
20260504203450 81 179 4.0 6.0 0.00 0.00 0.00 62 1006.3
20260504203352 81 147 3.0 7.0 0.00 0.00 0.00 62 1006.2
20260504203249 81 180 2.0 7.0 0.00 0.00 0.00 62 1006.2
20260504203151 81 199 2.0 7.0 0.00 0.00 0.00 62 1006.1
20260504203050 81 216 3.0 7.0 0.00 0.00 0.00 62 1006.2
20260504202951 81 188 2.0 7.0 0.00 0.00 0.00 61 1006.3
20260504202849 81 186 2.0 10.0 0.00 0.00 0.00 62 1006.3
20260504202749 81 166 2.0 10.0 0.00 0.00 0.00 62 1006.2
20260504202650 81 175 3.0 10.0 0.00 0.00 0.00 62 1006.2
20260504202550 81 165 4.0 10.0 0.00 0.00 0.00 61 1006.2
20260504202450 81 151 3.0 10.0 0.00 0.00 0.00 62 1006.2
20260504202351 81 159 4.0 10.0 0.00 0.00 0.00 61 1006.2
20260504202249 81 162 5.0 10.0 0.00 0.00 0.00 61 1006.3
20260504202150 81 107 5.0 10.0 0.00 0.00 0.00 61 1006.4
20260504202050 81 117 5.0 10.0 0.00 0.00 0.00 61 1006.4
20260504201950 82 140 5.0 10.0 0.00 0.00 0.00 61 1006.5
20260504201850 82 207 4.0 7.0 0.00 0.00 0.00 62 1006.5
20260504201749 82 185 4.0 7.0 0.00 0.00 0.00 62 1006.4
20260504201649 82 133 4.0 7.0 0.00 0.00 0.00 62 1006.5
20260504201549 81 179 4.0 7.0 0.00 0.00 0.00 63 1006.6
20260504201449 81 162 4.0 7.0 0.00 0.00 0.00 62 1006.5
20260504201350 81 120 4.0 7.0 0.00 0.00 0.00 62 1006.6
20260504201251 81 137 3.0 7.0 0.00 0.00 0.00 62 1006.6
20260504201145 81 145 3.0 7.0 0.00 0.00 0.00 61 1006.6
20260504201045 81 203 3.0 7.0 0.00 0.00 0.00 62 1006.7
20260504200940 81 200 4.0 7.0 0.00 0.00 0.00 62 1006.7
20260504200839 81 133 4.0 7.0 0.00 0.00 0.00 63 1006.7
20260504200732 81 140 4.0 7.0 0.00 0.00 0.00 63 1006.8
20260504200632 80 166 4.0 7.0 0.00 0.00 0.00 63 1006.8
20260504200532 80 138 4.0 9.0 0.00 0.00 0.00 63 1006.8
20260504200434 80 142 4.0 9.0 0.00 0.00 0.00 62 1006.9
20260504200332 80 151 4.0 9.0 0.00 0.00 0.00 62 1006.9
20260504200227 80 164 4.0 9.0 0.00 0.00 0.00 62 1006.9
20260504200124 80 152 3.0 9.0 0.00 0.00 0.00 62 1006.9
20260504200022 80 162 2.0 9.0 0.00 0.00 0.00 62 1006.8
20260504195915 80 171 2.0 9.0 0.00 0.00 0.00 62 1006.9
20260504195811 81 173 3.0 9.0 0.00 0.00 0.00 62 1006.9
20260504195704 81 157 4.0 9.0 0.00 0.00 0.00 63 1006.9
20260504195602 81 147 4.0 7.0 0.00 0.00 0.00 63 1006.9
20260504195503 80 142 4.0 7.0 0.00 0.00 0.00 63 1006.9
20260504195403 80 195 4.0 7.0 0.00 0.00 0.00 63 1007.0
20260504195304 80 173 3.0 7.0 0.00 0.00 0.00 63 1006.9
20260504195203 80 102 3.0 7.0 0.00 0.00 0.00 63 1007.0
20260504195103 80 166 4.0 9.0 0.00 0.00 0.00 63 1007.0
20260504195002 81 134 4.0 9.0 0.00 0.00 0.00 61 1007.0
20260504194902 81 149 4.0 9.0 0.00 0.00 0.00 61 1007.0
20260504194802 81 149 4.0 9.0 0.00 0.00 0.00 61 1007.0
20260504194702 81 145 5.0 9.0 0.00 0.00 0.00 62 1007.0
20260504194603 81 125 5.0 9.0 0.00 0.00 0.00 61 1007.0
20260504194503 81 107 5.0 9.0 0.00 0.00 0.00 61 1007.0
20260504194402 81 193 5.0 9.0 0.00 0.00 0.00 61 1007.1
20260504194303 81 188 5.0 9.0 0.00 0.00 0.00 62 1007.1
20260504194202 81 124 5.0 9.0 0.00 0.00 0.00 63 1007.0
20260504194102 80 210 4.0 9.0 0.00 0.00 0.00 62 1007.2
20260504194003 80 135 4.0 9.0 0.00 0.00 0.00 62 1007.1
20260504193902 80 214 4.0 9.0 0.00 0.00 0.00 62 1007.1
20260504193803 80 172 3.0 7.0 0.00 0.00 0.00 62 1007.1
20260504193703 80 137 4.0 7.0 0.00 0.00 0.00 62 1007.1
20260504193602 80 134 3.0 7.0 0.00 0.00 0.00 63 1007.1
20260504193503 80 127 4.0 7.0 0.00 0.00 0.00 63 1007.2
20260504193403 80 155 4.0 6.0 0.00 0.00 0.00 63 1007.2
20260504193303 80 159 3.0 6.0 0.00 0.00 0.00 63 1007.2